| time (UTC) | temp C | wind direction | speed KPH | gust KPH | rain 1hr cm | rain 24hr cm | rain mn cm | humidity % | barometer mb |
| 20260506003128 | 8 | 360 | 12.9 | 29.0 | 0.00 | 0.00 | 0.00 | 49 | 1011.6 |
| 20260506003005 | 8 | 24 | 11.3 | 29.0 | 0.00 | 0.00 | 0.00 | 49 | 1011.6 |
| 20260506002929 | 8 | 355 | 12.9 | 29.0 | 0.00 | 0.00 | 0.00 | 48 | 1011.6 |
| 20260506002813 | 8 | 355 | 12.9 | 29.0 | 0.00 | 0.00 | 0.00 | 49 | 1011.6 |
| 20260506002716 | 8 | 355 | 16.1 | 29.0 | 0.00 | 0.00 | 0.00 | 48 | 1011.7 |
| 20260506002621 | 8 | 349 | 19.3 | 29.0 | 0.00 | 0.00 | 0.00 | 48 | 1011.6 |
| 20260506002529 | 8 | 61 | 17.7 | 24.1 | 0.00 | 0.00 | 0.00 | 48 | 1011.6 |
| 20260506002406 | 8 | 20 | 14.5 | 24.1 | 0.00 | 0.00 | 0.00 | 48 | 1011.6 |
| 20260506002330 | 8 | 346 | 12.9 | 22.5 | 0.00 | 0.00 | 0.00 | 49 | 1011.5 |
| 20260506002208 | 8 | 13 | 12.9 | 22.5 | 0.00 | 0.00 | 0.00 | 49 | 1011.5 |
| 20260506002112 | 8 | 334 | 14.5 | 22.5 | 0.00 | 0.00 | 0.00 | 49 | 1011.4 |
| 20260506002016 | 8 | 348 | 12.9 | 22.5 | 0.00 | 0.00 | 0.00 | 49 | 1011.4 |
| 20260506001925 | 8 | 34 | 11.3 | 22.5 | 0.00 | 0.00 | 0.00 | 49 | 1011.4 |
| 20260506001809 | 8 | 49 | 11.3 | 20.9 | 0.00 | 0.00 | 0.00 | 49 | 1011.4 |
| 20260506001712 | 8 | 44 | 11.3 | 20.9 | 0.00 | 0.00 | 0.00 | 48 | 1011.4 |
| 20260506001637 | 8 | 328 | 12.9 | 20.9 | 0.00 | 0.00 | 0.00 | 49 | 1011.4 |
| 20260506001519 | 8 | 15 | 12.9 | 20.9 | 0.00 | 0.00 | 0.00 | 49 | 1011.4 |
| 20260506001423 | 8 | 355 | 12.9 | 20.9 | 0.00 | 0.00 | 0.00 | 48 | 1011.4 |
| 20260506001311 | 8 | 360 | 11.3 | 20.9 | 0.00 | 0.00 | 0.00 | 48 | 1011.4 |
| 20260506001215 | 8 | 5 | 12.9 | 20.9 | 0.00 | 0.00 | 0.00 | 48 | 1011.5 |
| 20260506001120 | 8 | 10 | 14.5 | 20.9 | 0.00 | 0.00 | 0.00 | 48 | 1011.4 |
| 20260506001005 | 8 | 323 | 9.7 | 20.9 | 0.00 | 0.00 | 0.00 | 48 | 1011.4 |
| 20260506000910 | 8 | 347 | 8.0 | 20.9 | 0.00 | 0.00 | 0.00 | 49 | 1011.3 |
| 20260506000815 | 8 | 27 | 8.0 | 20.9 | 0.00 | 0.00 | 0.00 | 48 | 1011.4 |
| 20260506000722 | 8 | 355 | 8.0 | 20.9 | 0.00 | 0.00 | 0.00 | 48 | 1011.4 |
| 20260506000607 | 8 | 350 | 11.3 | 22.5 | 0.00 | 0.00 | 0.00 | 48 | 1011.3 |
| 20260506000511 | 8 | 355 | 12.9 | 22.5 | 0.00 | 0.00 | 0.00 | 47 | 1011.4 |
| 20260506000416 | 8 | 294 | 12.9 | 24.1 | 0.00 | 0.00 | 0.00 | 48 | 1011.4 |
| 20260506000320 | 8 | 5 | 11.3 | 24.1 | 0.00 | 0.00 | 0.00 | 48 | 1011.4 |
| 20260506000223 | 8 | 355 | 11.3 | 24.1 | 0.00 | 0.00 | 0.00 | 46 | 1011.3 |
| 20260506000110 | 9 | 338 | 14.5 | 24.1 | 0.00 | 0.00 | 0.00 | 47 | 1011.4 |
| 20260506000015 | 9 | 333 | 14.5 | 25.7 | 0.00 | 0.00 | 0.00 | 47 | 1011.3 |
| 20260505235939 | 9 | 9 | 16.1 | 25.7 | 0.00 | 0.00 | 0.00 | 47 | 1011.3 |
| 20260505235824 | 9 | 355 | 16.1 | 25.7 | 0.00 | 0.00 | 0.00 | 47 | 1011.3 |
| 20260505235709 | 9 | 349 | 16.1 | 25.7 | 0.00 | 0.00 | 0.00 | 46 | 1011.3 |
| 20260505235614 | 9 | 5 | 16.1 | 25.7 | 0.00 | 0.00 | 0.00 | 46 | 1011.3 |
| 20260505235520 | 9 | 329 | 12.9 | 25.7 | 0.00 | 0.00 | 0.00 | 47 | 1011.3 |
| 20260505235409 | 9 | 355 | 12.9 | 25.7 | 0.00 | 0.00 | 0.00 | 47 | 1011.3 |
| 20260505235313 | 9 | 321 | 17.7 | 25.7 | 0.00 | 0.00 | 0.00 | 47 | 1011.3 |
| 20260505235218 | 9 | 350 | 20.9 | 27.4 | 0.00 | 0.00 | 0.00 | 46 | 1011.3 |
| 20260505235122 | 9 | 355 | 17.7 | 27.4 | 0.00 | 0.00 | 0.00 | 47 | 1011.3 |
| 20260505235026 | 9 | 338 | 14.5 | 27.4 | 0.00 | 0.00 | 0.00 | 47 | 1011.3 |
| 20260505234928 | 9 | 332 | 16.1 | 27.4 | 0.00 | 0.00 | 0.00 | 46 | 1011.2 |
| 20260505234815 | 9 | 344 | 16.1 | 27.4 | 0.00 | 0.00 | 0.00 | 47 | 1011.2 |
| 20260505234717 | 9 | 9 | 14.5 | 27.4 | 0.00 | 0.00 | 0.00 | 47 | 1011.2 |
| 20260505234622 | 9 | 347 | 12.9 | 27.4 | 0.00 | 0.00 | 0.00 | 47 | 1011.2 |
| 20260505234507 | 9 | 360 | 16.1 | 27.4 | 0.00 | 0.00 | 0.00 | 45 | 1011.2 |
| 20260505234431 | 9 | 350 | 17.7 | 27.4 | 0.00 | 0.00 | 0.00 | 45 | 1011.2 |
| 20260505234307 | 9 | 349 | 16.1 | 22.5 | 0.00 | 0.00 | 0.00 | 45 | 1011.2 |
| 20260505234216 | 9 | 19 | 12.9 | 22.5 | 0.00 | 0.00 | 0.00 | 45 | 1011.2 |
| 20260505234120 | 9 | 5 | 11.3 | 20.9 | 0.00 | 0.00 | 0.00 | 45 | 1011.2 |
| 20260505234024 | 9 | 348 | 9.7 | 20.9 | 0.00 | 0.00 | 0.00 | 46 | 1011.2 |
| 20260505233908 | 10 | 360 | 11.3 | 27.4 | 0.00 | 0.00 | 0.00 | 46 | 1011.2 |
| 20260505233813 | 10 | 344 | 12.9 | 27.4 | 0.00 | 0.00 | 0.00 | 45 | 1011.1 |
| 20260505233716 | 10 | 309 | 12.9 | 27.4 | 0.00 | 0.00 | 0.00 | 45 | 1011.1 |
| 20260505233624 | 10 | 336 | 12.9 | 27.4 | 0.00 | 0.00 | 0.00 | 45 | 1011.2 |
| 20260505233526 | 10 | 317 | 12.9 | 27.4 | 0.00 | 0.00 | 0.00 | 44 | 1011.1 |
| 20260505233409 | 10 | 329 | 11.3 | 27.4 | 0.00 | 0.00 | 0.00 | 45 | 1011.1 |
| 20260505233312 | 10 | 304 | 14.5 | 27.4 | 0.00 | 0.00 | 0.00 | 44 | 1011.2 |
| 20260505233216 | 10 | 338 | 16.1 | 27.4 | 0.00 | 0.00 | 0.00 | 43 | 1011.1 |
| 20260505233118 | 10 | 333 | 16.1 | 24.1 | 0.00 | 0.00 | 0.00 | 44 | 1011.1 |
| 20260505233007 | 10 | 355 | 14.5 | 24.1 | 0.00 | 0.00 | 0.00 | 45 | 1011.1 |
| 20260505232929 | 10 | 302 | 14.5 | 32.2 | 0.00 | 0.00 | 0.00 | 45 | 1011.1 |
| 20260505232805 | 10 | 338 | 12.9 | 32.2 | 0.00 | 0.00 | 0.00 | 45 | 1011.1 |
| 20260505232709 | 10 | 306 | 11.3 | 32.2 | 0.00 | 0.00 | 0.00 | 45 | 1011.1 |
| 20260505232613 | 10 | 315 | 11.3 | 32.2 | 0.00 | 0.00 | 0.00 | 44 | 1011.1 |
| 20260505232515 | 10 | 331 | 12.9 | 32.2 | 0.00 | 0.00 | 0.00 | 43 | 1011.1 |
| 20260505232418 | 10 | 348 | 12.9 | 32.2 | 0.00 | 0.00 | 0.00 | 43 | 1011.0 |
| 20260505232326 | 10 | 349 | 14.5 | 32.2 | 0.00 | 0.00 | 0.00 | 43 | 1011.1 |
| 20260505232228 | 10 | 19 | 19.3 | 32.2 | 0.00 | 0.00 | 0.00 | 43 | 1011.1 |
| 20260505232109 | 10 | 351 | 19.3 | 32.2 | 0.00 | 0.00 | 0.00 | 43 | 1011.1 |
| 20260505232012 | 10 | 355 | 17.7 | 27.4 | 0.00 | 0.00 | 0.00 | 43 | 1011.0 |
| 20260505231916 | 10 | 343 | 17.7 | 27.4 | 0.00 | 0.00 | 0.00 | 44 | 1011.0 |
| 20260505231818 | 10 | 337 | 17.7 | 27.4 | 0.00 | 0.00 | 0.00 | 43 | 1011.0 |
| 20260505231742 | 10 | 345 | 14.5 | 22.5 | 0.00 | 0.00 | 0.00 | 43 | 1011.1 |
| 20260505231628 | 10 | 355 | 16.1 | 22.5 | 0.00 | 0.00 | 0.00 | 43 | 1011.0 |
| 20260505231506 | 10 | 327 | 12.9 | 22.5 | 0.00 | 0.00 | 0.00 | 44 | 1011.0 |
| 20260505231429 | 10 | 355 | 12.9 | 22.5 | 0.00 | 0.00 | 0.00 | 44 | 1011.0 |
| 20260505231311 | 10 | 351 | 14.5 | 22.5 | 0.00 | 0.00 | 0.00 | 44 | 1011.0 |
| 20260505231214 | 10 | 38 | 14.5 | 22.5 | 0.00 | 0.00 | 0.00 | 45 | 1011.0 |
| 20260505231117 | 10 | 10 | 12.9 | 22.5 | 0.00 | 0.00 | 0.00 | 45 | 1011.0 |
| 20260505231021 | 10 | 339 | 12.9 | 22.5 | 0.00 | 0.00 | 0.00 | 44 | 1011.0 |
| 20260505230907 | 10 | 23 | 12.9 | 24.1 | 0.00 | 0.00 | 0.00 | 45 | 1010.9 |
| 20260505230811 | 10 | 336 | 14.5 | 24.1 | 0.00 | 0.00 | 0.00 | 45 | 1011.0 |
| 20260505230713 | 10 | 312 | 14.5 | 24.1 | 0.00 | 0.00 | 0.00 | 45 | 1010.9 |
| 20260505230617 | 10 | 18 | 11.3 | 24.1 | 0.00 | 0.00 | 0.00 | 45 | 1010.9 |
| 20260505230520 | 10 | 297 | 8.0 | 24.1 | 0.00 | 0.00 | 0.00 | 46 | 1010.9 |
| 20260505230406 | 10 | 344 | 9.7 | 24.1 | 0.00 | 0.00 | 0.00 | 45 | 1011.0 |
| 20260505230330 | 10 | 355 | 14.5 | 24.1 | 0.00 | 0.00 | 0.00 | 45 | 1011.0 |
| 20260505230206 | 10 | 328 | 17.7 | 25.7 | 0.00 | 0.00 | 0.00 | 43 | 1011.1 |
| 20260505230109 | 10 | 355 | 16.1 | 25.7 | 0.00 | 0.00 | 0.00 | 43 | 1011.0 |
| 20260505230013 | 10 | 355 | 17.7 | 25.7 | 0.00 | 0.00 | 0.00 | 44 | 1011.0 |
| 20260505225936 | 10 | 5 | 17.7 | 25.7 | 0.00 | 0.00 | 0.00 | 44 | 1011.1 |
| 20260505225819 | 10 | 342 | 16.1 | 25.7 | 0.00 | 0.00 | 0.00 | 45 | 1011.0 |
| 20260505225705 | 10 | 360 | 14.5 | 25.7 | 0.00 | 0.00 | 0.00 | 45 | 1011.1 |
| 20260505225609 | 10 | 360 | 16.1 | 25.7 | 0.00 | 0.00 | 0.00 | 45 | 1011.0 |
| 20260505225511 | 10 | 328 | 17.7 | 25.7 | 0.00 | 0.00 | 0.00 | 45 | 1011.0 |
| 20260505225414 | 9 | 355 | 17.7 | 25.7 | 0.00 | 0.00 | 0.00 | 46 | 1011.1 |
| 20260505225318 | 9 | 355 | 17.7 | 24.1 | 0.00 | 0.00 | 0.00 | 47 | 1011.0 |
| 20260505225220 | 9 | 360 | 14.5 | 22.5 | 0.00 | 0.00 | 0.00 | 46 | 1010.9 |
| 20260505225128 | 9 | 332 | 9.7 | 20.9 | 0.00 | 0.00 | 0.00 | 48 | 1011.0 |
| 20260505225031 | 9 | 325 | 9.7 | 20.9 | 0.00 | 0.00 | 0.00 | 47 | 1011.1 |
| 20260505224906 | 8 | 321 | 11.3 | 20.9 | 0.00 | 0.00 | 0.00 | 47 | 1011.0 |
| 20260505224830 | 8 | 355 | 11.3 | 22.5 | 0.00 | 0.00 | 0.00 | 47 | 1011.0 |
| 20260505224711 | 8 | 355 | 11.3 | 22.5 | 0.00 | 0.00 | 0.00 | 47 | 1011.0 |
| 20260505224614 | 8 | 338 | 11.3 | 22.5 | 0.00 | 0.00 | 0.00 | 47 | 1011.0 |
| 20260505224537 | 8 | 319 | 9.7 | 22.5 | 0.00 | 0.00 | 0.00 | 47 | 1011.1 |
| 20260505224419 | 8 | 342 | 11.3 | 22.5 | 0.00 | 0.00 | 0.00 | 48 | 1010.9 |
| 20260505224327 | 8 | 342 | 12.9 | 22.5 | 0.00 | 0.00 | 0.00 | 47 | 1011.0 |
| 20260505224209 | 8 | 336 | 14.5 | 22.5 | 0.00 | 0.00 | 0.00 | 46 | 1011.0 |
| 20260505224112 | 8 | 339 | 16.1 | 22.5 | 0.00 | 0.00 | 0.00 | 46 | 1010.9 |
| 20260505224015 | 8 | 12 | 14.5 | 25.7 | 0.00 | 0.00 | 0.00 | 48 | 1011.0 |
| 20260505223939 | 9 | 328 | 11.3 | 25.7 | 0.00 | 0.00 | 0.00 | 47 | 1011.0 |
| 20260505223821 | 9 | 318 | 8.0 | 25.7 | 0.00 | 0.00 | 0.00 | 47 | 1011.1 |
| 20260505223744 | 8 | 287 | 9.7 | 25.7 | 0.00 | 0.00 | 0.00 | 47 | 1011.0 |
| 20260505223631 | 8 | 333 | 12.9 | 25.7 | 0.00 | 0.00 | 0.00 | 46 | 1010.9 |
| 20260505223507 | 8 | 10 | 16.1 | 25.7 | 0.00 | 0.00 | 0.00 | 46 | 1011.0 |
| 20260505223411 | 8 | 355 | 14.5 | 25.7 | 0.00 | 0.00 | 0.00 | 46 | 1011.0 |
| 20260505223334 | 8 | 12 | 16.1 | 25.7 | 0.00 | 0.00 | 0.00 | 47 | 1011.1 |
| 20260505223217 | 8 | 5 | 14.5 | 25.7 | 0.00 | 0.00 | 0.00 | 47 | 1011.0 |
| 20260505223119 | 8 | 329 | 12.9 | 25.7 | 0.00 | 0.00 | 0.00 | 48 | 1011.0 |
| 20260505223006 | 8 | 13 | 14.5 | 24.1 | 0.00 | 0.00 | 0.00 | 46 | 1011.0 |
| 20260505222929 | 8 | 336 | 14.5 | 24.1 | 0.00 | 0.00 | 0.00 | 46 | 1010.9 |
| 20260505222852 | 8 | 5 | 12.9 | 24.1 | 0.00 | 0.00 | 0.00 | 46 | 1011.0 |
| 20260505222707 | 8 | 343 | 14.5 | 24.1 | 0.00 | 0.00 | 0.00 | 46 | 1011.0 |
| 20260505222630 | 8 | 346 | 16.1 | 24.1 | 0.00 | 0.00 | 0.00 | 46 | 1011.0 |
| 20260505222506 | 8 | 342 | 11.3 | 24.1 | 0.00 | 0.00 | 0.00 | 48 | 1011.0 |
| 20260505222409 | 8 | 336 | 12.9 | 24.1 | 0.00 | 0.00 | 0.00 | 46 | 1011.0 |
| 20260505222316 | 8 | 327 | 16.1 | 24.1 | 0.00 | 0.00 | 0.00 | 46 | 1011.0 |
| 20260505222219 | 8 | 336 | 16.1 | 25.7 | 0.00 | 0.00 | 0.00 | 46 | 1011.0 |
| 20260505222122 | 8 | 342 | 16.1 | 25.7 | 0.00 | 0.00 | 0.00 | 46 | 1010.9 |
| 20260505222006 | 8 | 350 | 16.1 | 25.7 | 0.00 | 0.00 | 0.00 | 46 | 1011.0 |
| 20260505221929 | 8 | 336 | 16.1 | 25.7 | 0.00 | 0.00 | 0.00 | 46 | 1011.1 |
| 20260505221806 | 8 | 5 | 14.5 | 25.7 | 0.00 | 0.00 | 0.00 | 47 | 1011.0 |
| 20260505221713 | 8 | 5 | 12.9 | 25.7 | 0.00 | 0.00 | 0.00 | 47 | 1011.0 |
| 20260505221616 | 8 | 5 | 12.9 | 25.7 | 0.00 | 0.00 | 0.00 | 47 | 1011.1 |
| 20260505221520 | 8 | 15 | 14.5 | 27.4 | 0.00 | 0.00 | 0.00 | 47 | 1011.1 |
| 20260505221445 | 8 | 294 | 16.1 | 27.4 | 0.00 | 0.00 | 0.00 | 46 | 1011.1 |
| 20260505221326 | 8 | 311 | 12.9 | 27.4 | 0.00 | 0.00 | 0.00 | 47 | 1011.1 |
| 20260505221209 | 8 | 343 | 14.5 | 27.4 | 0.00 | 0.00 | 0.00 | 47 | 1011.1 |
| 20260505221113 | 8 | 343 | 16.1 | 27.4 | 0.00 | 0.00 | 0.00 | 46 | 1011.1 |
| 20260505221020 | 8 | 323 | 14.5 | 27.4 | 0.00 | 0.00 | 0.00 | 46 | 1011.0 |
| 20260505220923 | 8 | 328 | 11.3 | 27.4 | 0.00 | 0.00 | 0.00 | 48 | 1011.1 |
| 20260505220826 | 8 | 326 | 14.5 | 27.4 | 0.00 | 0.00 | 0.00 | 46 | 1011.0 |
| 20260505220708 | 8 | 327 | 17.7 | 27.4 | 0.00 | 0.00 | 0.00 | 46 | 1011.1 |
| 20260505220611 | 8 | 338 | 16.1 | 30.6 | 0.00 | 0.00 | 0.00 | 47 | 1011.0 |
| 20260505220514 | 8 | 355 | 17.7 | 30.6 | 0.00 | 0.00 | 0.00 | 47 | 1011.2 |
| 20260505220418 | 8 | 304 | 16.1 | 30.6 | 0.00 | 0.00 | 0.00 | 47 | 1011.1 |
| 20260505220305 | 8 | 351 | 12.9 | 30.6 | 0.00 | 0.00 | 0.00 | 47 | 1011.2 |
| 20260505220228 | 9 | 350 | 12.9 | 30.6 | 0.00 | 0.00 | 0.00 | 47 | 1011.1 |
| 20260505220105 | 9 | 349 | 19.3 | 30.6 | 0.00 | 0.00 | 0.00 | 46 | 1011.2 |
| 20260505220009 | 9 | 308 | 22.5 | 30.6 | 0.00 | 0.00 | 0.00 | 46 | 1011.2 |
| 20260505215913 | 9 | 306 | 17.7 | 30.6 | 0.00 | 0.00 | 0.00 | 46 | 1011.1 |
| 20260505215818 | 9 | 338 | 12.9 | 25.7 | 0.00 | 0.00 | 0.00 | 46 | 1011.1 |
| 20260505215745 | 9 | 5 | 12.9 | 25.7 | 0.00 | 0.00 | 0.00 | 46 | 1011.2 |
| 20260505215608 | 9 | 315 | 17.7 | 25.7 | 0.00 | 0.00 | 0.00 | 47 | 1011.2 |
| 20260505215531 | 9 | 360 | 17.7 | 25.7 | 0.00 | 0.00 | 0.00 | 47 | 1011.1 |
| 20260505215431 | 9 | 323 | 17.7 | 25.7 | 0.00 | 0.00 | 0.00 | 47 | 1011.1 |
| 20260505215313 | 9 | 350 | 12.9 | 24.1 | 0.00 | 0.00 | 0.00 | 46 | 1011.2 |
| 20260505215237 | 9 | 326 | 11.3 | 22.5 | 0.00 | 0.00 | 0.00 | 48 | 1011.1 |
| 20260505215141 | 9 | 322 | 11.3 | 22.5 | 0.00 | 0.00 | 0.00 | 47 | 1011.1 |
| 20260505215024 | 9 | 323 | 11.3 | 22.5 | 0.00 | 0.00 | 0.00 | 48 | 1011.2 |
| 20260505214913 | 9 | 337 | 11.3 | 24.1 | 0.00 | 0.00 | 0.00 | 47 | 1011.2 |
| 20260505214837 | 9 | 339 | 11.3 | 27.4 | 0.00 | 0.00 | 0.00 | 47 | 1011.2 |
| 20260505214720 | 9 | 342 | 11.3 | 27.4 | 0.00 | 0.00 | 0.00 | 49 | 1011.2 |
| 20260505214606 | 9 | 293 | 9.7 | 27.4 | 0.00 | 0.00 | 0.00 | 48 | 1011.2 |
| 20260505214530 | 9 | 281 | 9.7 | 27.4 | 0.00 | 0.00 | 0.00 | 47 | 1011.2 |
| 20260505214406 | 9 | 315 | 12.9 | 27.4 | 0.00 | 0.00 | 0.00 | 47 | 1011.2 |
| 20260505214331 | 9 | 339 | 16.1 | 30.6 | 0.00 | 0.00 | 0.00 | 46 | 1011.2 |
| 20260505214239 | 9 | 319 | 17.7 | 30.6 | 0.00 | 0.00 | 0.00 | 46 | 1011.2 |
| 20260505214121 | 9 | 343 | 19.3 | 30.6 | 0.00 | 0.00 | 0.00 | 45 | 1011.2 |
| 20260505214026 | 9 | 342 | 16.1 | 30.6 | 0.00 | 0.00 | 0.00 | 47 | 1011.1 |
| 20260505213908 | 9 | 297 | 14.5 | 30.6 | 0.00 | 0.00 | 0.00 | 47 | 1011.2 |
| 20260505213833 | 9 | 336 | 17.7 | 30.6 | 0.00 | 0.00 | 0.00 | 47 | 1011.2 |
| 20260505213716 | 9 | 335 | 17.7 | 30.6 | 0.00 | 0.00 | 0.00 | 46 | 1011.2 |
| 20260505213620 | 9 | 328 | 20.9 | 30.6 | 0.00 | 0.00 | 0.00 | 47 | 1011.2 |
| 20260505213510 | 9 | 303 | 16.1 | 30.6 | 0.00 | 0.00 | 0.00 | 47 | 1011.2 |
| 20260505213414 | 9 | 314 | 16.1 | 30.6 | 0.00 | 0.00 | 0.00 | 46 | 1011.2 |
| 20260505213318 | 9 | 343 | 19.3 | 30.6 | 0.00 | 0.00 | 0.00 | 46 | 1011.1 |
| 20260505213224 | 9 | 11 | 17.7 | 30.6 | 0.00 | 0.00 | 0.00 | 45 | 1011.2 |
| 20260505213128 | 9 | 355 | 12.9 | 25.7 | 0.00 | 0.00 | 0.00 | 47 | 1011.2 |
| 20260505213011 | 9 | 288 | 14.5 | 25.7 | 0.00 | 0.00 | 0.00 | 47 | 1011.3 |
| 20260505212920 | 9 | 344 | 14.5 | 25.7 | 0.00 | 0.00 | 0.00 | 46 | 1011.3 |
| 20260505212824 | 9 | 15 | 12.9 | 25.7 | 0.00 | 0.00 | 0.00 | 47 | 1011.2 |
| 20260505212728 | 9 | 285 | 16.1 | 25.7 | 0.00 | 0.00 | 0.00 | 46 | 1011.2 |
| 20260505212605 | 9 | 340 | 16.1 | 25.7 | 0.00 | 0.00 | 0.00 | 49 | 1011.3 |
| 20260505212530 | 9 | 329 | 11.3 | 24.1 | 0.00 | 0.00 | 0.00 | 49 | 1011.2 |
| 20260505212413 | 9 | 5 | 11.3 | 24.1 | 0.00 | 0.00 | 0.00 | 48 | 1011.2 |
| 20260505212318 | 9 | 355 | 12.9 | 24.1 | 0.00 | 0.00 | 0.00 | 48 | 1011.3 |
| 20260505212206 | 9 | 327 | 12.9 | 24.1 | 0.00 | 0.00 | 0.00 | 49 | 1011.2 |
| 20260505212131 | 9 | 302 | 11.3 | 24.1 | 0.00 | 0.00 | 0.00 | 49 | 1011.2 |
| 20260505212007 | 9 | 350 | 8.0 | 24.1 | 0.00 | 0.00 | 0.00 | 47 | 1011.1 |
| 20260505211911 | 9 | 315 | 12.9 | 24.1 | 0.00 | 0.00 | 0.00 | 47 | 1011.2 |
| 20260505211816 | 9 | 330 | 16.1 | 24.1 | 0.00 | 0.00 | 0.00 | 46 | 1011.2 |
| 20260505211704 | 9 | 313 | 16.1 | 25.7 | 0.00 | 0.00 | 0.00 | 48 | 1011.1 |
| 20260505211628 | 9 | 329 | 14.5 | 25.7 | 0.00 | 0.00 | 0.00 | 48 | 1011.1 |
| 20260505211505 | 9 | 316 | 11.3 | 25.7 | 0.00 | 0.00 | 0.00 | 48 | 1011.3 |
| 20260505211411 | 9 | 317 | 11.3 | 25.7 | 0.00 | 0.00 | 0.00 | 46 | 1011.3 |
| 20260505211335 | 9 | 341 | 12.9 | 25.7 | 0.00 | 0.00 | 0.00 | 46 | 1011.2 |
| 20260505211216 | 9 | 313 | 11.3 | 25.7 | 0.00 | 0.00 | 0.00 | 46 | 1011.3 |
| 20260505211121 | 9 | 344 | 11.3 | 25.7 | 0.00 | 0.00 | 0.00 | 47 | 1011.2 |
| 20260505211011 | 10 | 349 | 14.5 | 25.7 | 0.00 | 0.00 | 0.00 | 47 | 1011.3 |
| 20260505210915 | 10 | 355 | 14.5 | 25.7 | 0.00 | 0.00 | 0.00 | 46 | 1011.3 |
| 20260505210819 | 10 | 317 | 12.9 | 27.4 | 0.00 | 0.00 | 0.00 | 47 | 1011.3 |
| 20260505210724 | 10 | 325 | 9.7 | 27.4 | 0.00 | 0.00 | 0.00 | 46 | 1011.3 |
| 20260505210608 | 10 | 324 | 11.3 | 27.4 | 0.00 | 0.00 | 0.00 | 47 | 1011.3 |
| 20260505210510 | 10 | 330 | 11.3 | 27.4 | 0.00 | 0.00 | 0.00 | 46 | 1011.3 |
| 20260505210419 | 10 | 17 | 11.3 | 27.4 | 0.00 | 0.00 | 0.00 | 45 | 1011.4 |
| 20260505210323 | 10 | 13 | 11.3 | 27.4 | 0.00 | 0.00 | 0.00 | 47 | 1011.3 |
| 20260505210227 | 10 | 12 | 16.1 | 29.0 | 0.00 | 0.00 | 0.00 | 46 | 1011.3 |
| 20260505210110 | 10 | 344 | 17.7 | 29.0 | 0.00 | 0.00 | 0.00 | 45 | 1011.3 |
| 20260505210015 | 10 | 335 | 17.7 | 29.0 | 0.00 | 0.00 | 0.00 | 47 | 1011.3 |
| 20260505205918 | 10 | 306 | 17.7 | 29.0 | 0.00 | 0.00 | 0.00 | 46 | 1011.3 |
| 20260505205807 | 10 | 355 | 14.5 | 29.0 | 0.00 | 0.00 | 0.00 | 45 | 1011.4 |
| 20260505205712 | 10 | 332 | 14.5 | 29.0 | 0.00 | 0.00 | 0.00 | 46 | 1011.3 |
| 20260505205615 | 10 | 355 | 17.7 | 29.0 | 0.00 | 0.00 | 0.00 | 47 | 1011.3 |
| 20260505205541 | 10 | 333 | 17.7 | 29.0 | 0.00 | 0.00 | 0.00 | 46 | 1011.3 |
| 20260505205442 | 10 | 338 | 17.7 | 29.0 | 0.00 | 0.00 | 0.00 | 47 | 1011.2 |
| 20260505205326 | 10 | 321 | 17.7 | 27.4 | 0.00 | 0.00 | 0.00 | 47 | 1011.3 |
| 20260505205210 | 10 | 344 | 17.7 | 27.4 | 0.00 | 0.00 | 0.00 | 46 | 1011.2 |
| 20260505205118 | 10 | 323 | 14.5 | 27.4 | 0.00 | 0.00 | 0.00 | 45 | 1011.3 |
| 20260505205023 | 10 | 13 | 12.9 | 27.4 | 0.00 | 0.00 | 0.00 | 46 | 1011.3 |
| 20260505204906 | 10 | 5 | 14.5 | 27.4 | 0.00 | 0.00 | 0.00 | 46 | 1011.3 |
| 20260505204830 | 10 | 9 | 16.1 | 27.4 | 0.00 | 0.00 | 0.00 | 47 | 1011.3 |
| 20260505204707 | 10 | 335 | 16.1 | 27.4 | 0.00 | 0.00 | 0.00 | 46 | 1011.3 |
| 20260505204611 | 9 | 21 | 14.5 | 27.4 | 0.00 | 0.00 | 0.00 | 47 | 1011.3 |
| 20260505204518 | 9 | 344 | 14.5 | 27.4 | 0.00 | 0.00 | 0.00 | 46 | 1011.2 |
| 20260505204423 | 10 | 324 | 14.5 | 27.4 | 0.00 | 0.00 | 0.00 | 47 | 1011.3 |
| 20260505204308 | 9 | 19 | 12.9 | 32.2 | 0.00 | 0.00 | 0.00 | 46 | 1011.3 |
| 20260505204211 | 9 | 350 | 14.5 | 32.2 | 0.00 | 0.00 | 0.00 | 46 | 1011.3 |
| 20260505204115 | 9 | 338 | 17.7 | 32.2 | 0.00 | 0.00 | 0.00 | 46 | 1011.4 |
| 20260505204020 | 9 | 5 | 16.1 | 32.2 | 0.00 | 0.00 | 0.00 | 46 | 1011.5 |
| 20260505203930 | 9 | 321 | 9.7 | 32.2 | 0.00 | 0.00 | 0.00 | 48 | 1011.4 |
| 20260505203806 | 9 | 355 | 12.9 | 32.2 | 0.00 | 0.00 | 0.00 | 46 | 1011.4 |
| 20260505203730 | 9 | 355 | 16.1 | 32.2 | 0.00 | 0.00 | 0.00 | 46 | 1011.3 |
| 20260505203607 | 9 | 355 | 22.5 | 32.2 | 0.00 | 0.00 | 0.00 | 44 | 1011.3 |
| 20260505203512 | 10 | 333 | 22.5 | 32.2 | 0.00 | 0.00 | 0.00 | 45 | 1011.4 |
| 20260505203436 | 10 | 355 | 17.7 | 27.4 | 0.00 | 0.00 | 0.00 | 46 | 1011.3 |
| 20260505203319 | 10 | 338 | 17.7 | 27.4 | 0.00 | 0.00 | 0.00 | 47 | 1011.2 |
| 20260505203228 | 10 | 355 | 17.7 | 27.4 | 0.00 | 0.00 | 0.00 | 47 | 1011.3 |
| 20260505203105 | 10 | 290 | 17.7 | 27.4 | 0.00 | 0.00 | 0.00 | 49 | 1011.3 |
| 20260505203009 | 10 | 301 | 19.3 | 27.4 | 0.00 | 0.00 | 0.00 | 47 | 1011.3 |
| 20260505202913 | 10 | 302 | 17.7 | 27.4 | 0.00 | 0.00 | 0.00 | 48 | 1011.3 |
| 20260505202817 | 10 | 300 | 17.7 | 24.1 | 0.00 | 0.00 | 0.00 | 48 | 1011.3 |
| 20260505202704 | 10 | 11 | 16.1 | 27.4 | 0.00 | 0.00 | 0.00 | 46 | 1011.4 |
| 20260505202609 | 10 | 346 | 12.9 | 27.4 | 0.00 | 0.00 | 0.00 | 49 | 1011.4 |
| 20260505202513 | 10 | 317 | 11.3 | 27.4 | 0.00 | 0.00 | 0.00 | 48 | 1011.5 |
| 20260505202418 | 10 | 333 | 12.9 | 27.4 | 0.00 | 0.00 | 0.00 | 47 | 1011.4 |
| 20260505202322 | 10 | 336 | 12.9 | 27.4 | 0.00 | 0.00 | 0.00 | 47 | 1011.4 |
| 20260505202226 | 10 | 5 | 12.9 | 27.4 | 0.00 | 0.00 | 0.00 | 46 | 1011.4 |
| 20260505202108 | 10 | 344 | 14.5 | 32.2 | 0.00 | 0.00 | 0.00 | 45 | 1011.5 |
| 20260505202017 | 10 | 360 | 17.7 | 32.2 | 0.00 | 0.00 | 0.00 | 45 | 1011.4 |
| 20260505201942 | 10 | 323 | 16.1 | 32.2 | 0.00 | 0.00 | 0.00 | 46 | 1011.3 |
| 20260505201807 | 10 | 319 | 14.5 | 32.2 | 0.00 | 0.00 | 0.00 | 46 | 1011.5 |
| 20260505201710 | 10 | 347 | 14.5 | 32.2 | 0.00 | 0.00 | 0.00 | 45 | 1011.4 |
| 20260505201614 | 10 | 9 | 12.9 | 32.2 | 0.00 | 0.00 | 0.00 | 46 | 1011.4 |
| 20260505201519 | 10 | 33 | 17.7 | 32.2 | 0.00 | 0.00 | 0.00 | 49 | 1011.5 |
| 20260505201407 | 10 | 317 | 17.7 | 32.2 | 0.00 | 0.00 | 0.00 | 46 | 1011.3 |
| 20260505201311 | 10 | 292 | 14.5 | 32.2 | 0.00 | 0.00 | 0.00 | 52 | 1011.4 |
| 20260505201216 | 10 | 291 | 12.9 | 29.0 | 0.00 | 0.00 | 0.00 | 47 | 1011.4 |
| 20260505201141 | 10 | 312 | 11.3 | 29.0 | 0.00 | 0.00 | 0.00 | 48 | 1011.4 |
| 20260505201023 | 10 | 328 | 9.7 | 30.6 | 0.00 | 0.00 | 0.00 | 47 | 1011.4 |
| 20260505200927 | 10 | 300 | 16.1 | 30.6 | 0.00 | 0.00 | 0.00 | 46 | 1011.6 |
| 20260505200829 | 10 | 323 | 16.1 | 30.6 | 0.00 | 0.00 | 0.00 | 45 | 1011.5 |
| 20260505200717 | 10 | 320 | 12.9 | 30.6 | 0.00 | 0.00 | 0.00 | 48 | 1011.4 |
| 20260505200619 | 10 | 340 | 9.7 | 30.6 | 0.00 | 0.00 | 0.00 | 47 | 1011.6 |
| 20260505200504 | 10 | 351 | 11.3 | 30.6 | 0.00 | 0.00 | 0.00 | 47 | 1011.3 |
| 20260505200408 | 10 | 348 | 16.1 | 30.6 | 0.00 | 0.00 | 0.00 | 46 | 1011.4 |
| 20260505200312 | 10 | 355 | 16.1 | 30.6 | 0.00 | 0.00 | 0.00 | 46 | 1011.4 |
| 20260505200217 | 10 | 328 | 12.9 | 30.6 | 0.00 | 0.00 | 0.00 | 47 | 1011.4 |
| 20260505200128 | 10 | 11 | 11.3 | 24.1 | 0.00 | 0.00 | 0.00 | 48 | 1011.5 |
| 20260505200030 | 10 | 355 | 11.3 | 24.1 | 0.00 | 0.00 | 0.00 | 47 | 1011.4 |
| 20260505195914 | 10 | 343 | 11.3 | 27.4 | 0.00 | 0.00 | 0.00 | 47 | 1011.4 |
| 20260505195819 | 10 | 296 | 12.9 | 27.4 | 0.00 | 0.00 | 0.00 | 45 | 1011.3 |
| 20260505195723 | 10 | 355 | 14.5 | 27.4 | 0.00 | 0.00 | 0.00 | 46 | 1011.4 |
| 20260505195628 | 10 | 360 | 14.5 | 27.4 | 0.00 | 0.00 | 0.00 | 47 | 1011.4 |
| 20260505195505 | 10 | 34 | 11.3 | 27.4 | 0.00 | 0.00 | 0.00 | 49 | 1011.4 |
| 20260505195413 | 9 | 325 | 11.3 | 27.4 | 0.00 | 0.00 | 0.00 | 47 | 1011.3 |
| 20260505195318 | 9 | 347 | 14.5 | 27.4 | 0.00 | 0.00 | 0.00 | 47 | 1011.4 |
| 20260505195223 | 9 | 347 | 16.1 | 27.4 | 0.00 | 0.00 | 0.00 | 46 | 1011.4 |
| 20260505195108 | 9 | 303 | 14.5 | 25.7 | 0.00 | 0.00 | 0.00 | 47 | 1011.4 |
| 20260505195012 | 9 | 325 | 17.7 | 25.7 | 0.00 | 0.00 | 0.00 | 47 | 1011.4 |
| 20260505194916 | 9 | 324 | 14.5 | 25.7 | 0.00 | 0.00 | 0.00 | 47 | 1011.4 |
| 20260505194805 | 9 | 360 | 12.9 | 25.7 | 0.00 | 0.00 | 0.00 | 49 | 1011.4 |
| 20260505194709 | 9 | 355 | 12.9 | 25.7 | 0.00 | 0.00 | 0.00 | 47 | 1011.4 |
| 20260505194614 | 9 | 27 | 11.3 | 25.7 | 0.00 | 0.00 | 0.00 | 47 | 1011.3 |
| 20260505194519 | 8 | 17 | 11.3 | 25.7 | 0.00 | 0.00 | 0.00 | 47 | 1011.4 |
| 20260505194423 | 8 | 355 | 14.5 | 25.7 | 0.00 | 0.00 | 0.00 | 47 | 1011.4 |
| 20260505194312 | 8 | 329 | 14.5 | 32.2 | 0.00 | 0.00 | 0.00 | 47 | 1011.3 |
| 20260505194214 | 8 | 319 | 12.9 | 32.2 | 0.00 | 0.00 | 0.00 | 48 | 1011.4 |
| 20260505194120 | 8 | 315 | 12.9 | 32.2 | 0.00 | 0.00 | 0.00 | 46 | 1011.4 |
| 20260505194024 | 8 | 308 | 14.5 | 32.2 | 0.00 | 0.00 | 0.00 | 46 | 1011.3 |
| 20260505193928 | 9 | 298 | 16.1 | 32.2 | 0.00 | 0.00 | 0.00 | 45 | 1011.2 |
| 20260505193811 | 9 | 342 | 16.1 | 32.2 | 0.00 | 0.00 | 0.00 | 47 | 1011.4 |
| 20260505193735 | 9 | 339 | 16.1 | 32.2 | 0.00 | 0.00 | 0.00 | 47 | 1011.4 |
| 20260505193623 | 8 | 9 | 19.3 | 32.2 | 0.00 | 0.00 | 0.00 | 46 | 1011.4 |
| 20260505193508 | 9 | 327 | 17.7 | 32.2 | 0.00 | 0.00 | 0.00 | 46 | 1011.3 |
| 20260505193412 | 9 | 333 | 11.3 | 32.2 | 0.00 | 0.00 | 0.00 | 49 | 1011.4 |
| 20260505193316 | 9 | 325 | 8.0 | 30.6 | 0.00 | 0.00 | 0.00 | 48 | 1011.3 |
| 20260505193221 | 9 | 342 | 9.7 | 30.6 | 0.00 | 0.00 | 0.00 | 47 | 1011.3 |
| 20260505193106 | 9 | 15 | 16.1 | 30.6 | 0.00 | 0.00 | 0.00 | 45 | 1011.4 |
| 20260505193014 | 9 | 355 | 17.7 | 30.6 | 0.00 | 0.00 | 0.00 | 45 | 1011.3 |
| 20260505192918 | 9 | 13 | 17.7 | 30.6 | 0.00 | 0.00 | 0.00 | 47 | 1011.4 |
| 20260505192821 | 9 | 355 | 14.5 | 30.6 | 0.00 | 0.00 | 0.00 | 45 | 1011.4 |
| 20260505192706 | 9 | 309 | 17.7 | 30.6 | 0.00 | 0.00 | 0.00 | 46 | 1011.3 |
| 20260505192630 | 9 | 360 | 17.7 | 30.6 | 0.00 | 0.00 | 0.00 | 45 | 1011.4 |
| 20260505192507 | 9 | 344 | 19.3 | 30.6 | 0.00 | 0.00 | 0.00 | 44 | 1011.4 |
| 20260505192415 | 9 | 5 | 16.1 | 25.7 | 0.00 | 0.00 | 0.00 | 45 | 1011.4 |
| 20260505192339 | 9 | 351 | 14.5 | 24.1 | 0.00 | 0.00 | 0.00 | 46 | 1011.4 |
| 20260505192222 | 9 | 336 | 14.5 | 24.1 | 0.00 | 0.00 | 0.00 | 46 | 1011.4 |
| 20260505192126 | 9 | 16 | 12.9 | 24.1 | 0.00 | 0.00 | 0.00 | 47 | 1011.4 |
| 20260505192010 | 9 | 355 | 12.9 | 24.1 | 0.00 | 0.00 | 0.00 | 46 | 1011.4 |
| 20260505191915 | 10 | 28 | 11.3 | 24.1 | 0.00 | 0.00 | 0.00 | 47 | 1011.4 |
| 20260505191819 | 10 | 59 | 12.9 | 24.1 | 0.00 | 0.00 | 0.00 | 46 | 1011.4 |
| 20260505191728 | 10 | 324 | 11.3 | 24.1 | 0.00 | 0.00 | 0.00 | 46 | 1011.4 |
| 20260505191605 | 10 | 355 | 9.7 | 24.1 | 0.00 | 0.00 | 0.00 | 47 | 1011.5 |
| 20260505191509 | 10 | 355 | 14.5 | 24.1 | 0.00 | 0.00 | 0.00 | 46 | 1011.5 |
| 20260505191433 | 10 | 13 | 16.1 | 24.1 | 0.00 | 0.00 | 0.00 | 48 | 1011.4 |
| 20260505191336 | 9 | 19 | 14.5 | 24.1 | 0.00 | 0.00 | 0.00 | 49 | 1011.4 |
| 20260505191218 | 9 | 342 | 11.3 | 24.1 | 0.00 | 0.00 | 0.00 | 46 | 1011.4 |
| 20260505191106 | 9 | 15 | 9.7 | 24.1 | 0.00 | 0.00 | 0.00 | 47 | 1011.5 |
| 20260505191009 | 9 | 355 | 9.7 | 24.1 | 0.00 | 0.00 | 0.00 | 47 | 1011.4 |
| 20260505190914 | 9 | 360 | 11.3 | 29.0 | 0.00 | 0.00 | 0.00 | 48 | 1011.5 |
| 20260505190818 | 9 | 346 | 12.9 | 29.0 | 0.00 | 0.00 | 0.00 | 45 | 1011.4 |
| 20260505190742 | 9 | 301 | 16.1 | 29.0 | 0.00 | 0.00 | 0.00 | 47 | 1011.4 |
| 20260505190606 | 9 | 305 | 16.1 | 29.0 | 0.00 | 0.00 | 0.00 | 47 | 1011.4 |
| 20260505190530 | 8 | 286 | 11.3 | 29.0 | 0.00 | 0.00 | 0.00 | 48 | 1011.5 |
| 20260505190416 | 8 | 17 | 12.9 | 29.0 | 0.00 | 0.00 | 0.00 | 48 | 1011.4 |
| 20260505190319 | 8 | 19 | 12.9 | 29.0 | 0.00 | 0.00 | 0.00 | 48 | 1011.4 |
| 20260505190204 | 8 | 335 | 9.7 | 29.0 | 0.00 | 0.00 | 0.00 | 47 | 1011.5 |
| 20260505190128 | 8 | 344 | 16.1 | 29.0 | 0.00 | 0.00 | 0.00 | 48 | 1011.5 |
| 20260505190030 | 8 | 27 | 17.7 | 29.0 | 0.00 | 0.00 | 0.00 | 45 | 1011.5 |
| 20260505185905 | 8 | 12 | 17.7 | 27.4 | 0.00 | 0.00 | 0.00 | 46 | 1011.7 |
| 20260505185809 | 8 | 348 | 16.1 | 32.2 | 0.00 | 0.00 | 0.00 | 46 | 1011.7 |
| 20260505185718 | 8 | 360 | 14.5 | 38.6 | 0.00 | 0.00 | 0.00 | 47 | 1011.6 |
| 20260505185623 | 8 | 347 | 12.9 | 38.6 | 0.00 | 0.00 | 0.00 | 49 | 1011.5 |
| 20260505185527 | 8 | 317 | 12.9 | 38.6 | 0.00 | 0.00 | 0.00 | 50 | 1011.7 |
| 20260505185405 | 8 | 291 | 12.9 | 38.6 | 0.00 | 0.00 | 0.00 | 48 | 1011.6 |
| 20260505185330 | 8 | 306 | 14.5 | 38.6 | 0.00 | 0.00 | 0.00 | 48 | 1011.5 |
| 20260505185207 | 8 | 309 | 19.3 | 38.6 | 0.00 | 0.00 | 0.00 | 46 | 1011.5 |
| 20260505185114 | 8 | 305 | 20.9 | 38.6 | 0.00 | 0.00 | 0.00 | 45 | 1011.6 |
| 20260505185039 | 8 | 292 | 22.5 | 38.6 | 0.00 | 0.00 | 0.00 | 46 | 1011.7 |
| 20260505184923 | 8 | 355 | 24.1 | 38.6 | 0.00 | 0.00 | 0.00 | 46 | 1011.6 |
| 20260505184808 | 9 | 288 | 19.3 | 29.0 | 0.00 | 0.00 | 0.00 | 46 | 1011.5 |
| 20260505184712 | 9 | 313 | 17.7 | 29.0 | 0.00 | 0.00 | 0.00 | 46 | 1011.5 |
| 20260505184616 | 9 | 327 | 16.1 | 29.0 | 0.00 | 0.00 | 0.00 | 48 | 1011.4 |
| 20260505184525 | 9 | 45 | 14.5 | 29.0 | 0.00 | 0.00 | 0.00 | 46 | 1011.5 |
| 20260505184409 | 9 | 355 | 12.9 | 29.0 | 0.00 | 0.00 | 0.00 | 46 | 1011.4 |
| 20260505184313 | 9 | 355 | 11.3 | 35.4 | 0.00 | 0.00 | 0.00 | 45 | 1011.4 |
| 20260505184238 | 9 | 337 | 12.9 | 35.4 | 0.00 | 0.00 | 0.00 | 45 | 1011.5 |
| 20260505184121 | 9 | 339 | 14.5 | 35.4 | 0.00 | 0.00 | 0.00 | 45 | 1011.5 |
| 20260505184006 | 9 | 306 | 17.7 | 35.4 | 0.00 | 0.00 | 0.00 | 45 | 1011.5 |
| 20260505183911 | 9 | 334 | 17.7 | 35.4 | 0.00 | 0.00 | 0.00 | 45 | 1011.6 |
| 20260505183819 | 9 | 346 | 16.1 | 35.4 | 0.00 | 0.00 | 0.00 | 46 | 1011.6 |
| 20260505183723 | 9 | 333 | 16.1 | 35.4 | 0.00 | 0.00 | 0.00 | 47 | 1011.6 |
| 20260505183609 | 9 | 11 | 19.3 | 35.4 | 0.00 | 0.00 | 0.00 | 46 | 1011.5 |
| 20260505183512 | 9 | 311 | 17.7 | 35.4 | 0.00 | 0.00 | 0.00 | 49 | 1011.6 |
| 20260505183415 | 9 | 327 | 16.1 | 27.4 | 0.00 | 0.00 | 0.00 | 46 | 1011.4 |
| 20260505183320 | 9 | 331 | 17.7 | 27.4 | 0.00 | 0.00 | 0.00 | 45 | 1011.6 |
| 20260505183249 | 8 | 360 | 17.7 | 25.7 | 0.00 | 0.00 | 0.00 | 47 | 1011.6 |
| 20260505183105 | 8 | 5 | 14.5 | 25.7 | 0.00 | 0.00 | 0.00 | 46 | 1011.6 |
| 20260505183030 | 8 | 337 | 14.5 | 25.7 | 0.00 | 0.00 | 0.00 | 46 | 1011.6 |
| 20260505182907 | 8 | 13 | 14.5 | 25.7 | 0.00 | 0.00 | 0.00 | 47 | 1011.5 |
| 20260505182812 | 8 | 336 | 14.5 | 25.7 | 0.00 | 0.00 | 0.00 | 46 | 1011.4 |
| 20260505182716 | 8 | 311 | 16.1 | 25.7 | 0.00 | 0.00 | 0.00 | 46 | 1011.6 |
| 20260505182623 | 8 | 313 | 12.9 | 25.7 | 0.00 | 0.00 | 0.00 | 48 | 1011.5 |
| 20260505182508 | 8 | 16 | 11.3 | 25.7 | 0.00 | 0.00 | 0.00 | 47 | 1011.5 |
| 20260505182432 | 8 | 333 | 14.5 | 25.7 | 0.00 | 0.00 | 0.00 | 50 | 1011.4 |
| 20260505182315 | 8 | 342 | 16.1 | 25.7 | 0.00 | 0.00 | 0.00 | 48 | 1011.5 |
| 20260505182239 | 8 | 310 | 16.1 | 25.7 | 0.00 | 0.00 | 0.00 | 47 | 1011.4 |
| 20260505182123 | 8 | 317 | 14.5 | 24.1 | 0.00 | 0.00 | 0.00 | 46 | 1011.4 |
| 20260505182023 | 8 | 329 | 14.5 | 24.1 | 0.00 | 0.00 | 0.00 | 48 | 1011.4 |
| 20260505181932 | 8 | 296 | 16.1 | 24.1 | 0.00 | 0.00 | 0.00 | 47 | 1011.4 |
| 20260505181814 | 8 | 332 | 16.1 | 24.1 | 0.00 | 0.00 | 0.00 | 49 | 1011.4 |
| 20260505181717 | 8 | 313 | 16.1 | 24.1 | 0.00 | 0.00 | 0.00 | 48 | 1011.6 |
| 20260505181622 | 8 | 325 | 16.1 | 24.1 | 0.00 | 0.00 | 0.00 | 47 | 1011.6 |
| 20260505181526 | 8 | 330 | 16.1 | 25.7 | 0.00 | 0.00 | 0.00 | 48 | 1011.5 |
| 20260505181410 | 8 | 329 | 14.5 | 25.7 | 0.00 | 0.00 | 0.00 | 47 | 1011.5 |
| 20260505181315 | 8 | 346 | 11.3 | 25.7 | 0.00 | 0.00 | 0.00 | 48 | 1011.4 |
| 20260505181244 | 8 | 345 | 12.9 | 25.7 | 0.00 | 0.00 | 0.00 | 48 | 1011.4 |
| 20260505181128 | 8 | 360 | 14.5 | 25.7 | 0.00 | 0.00 | 0.00 | 48 | 1011.6 |
| 20260505181051 | 8 | 30 | 16.1 | 25.7 | 0.00 | 0.00 | 0.00 | 50 | 1011.4 |
| 20260505180907 | 8 | 338 | 14.5 | 25.7 | 0.00 | 0.00 | 0.00 | 48 | 1011.4 |
| 20260505180811 | 8 | 351 | 14.5 | 25.7 | 0.00 | 0.00 | 0.00 | 49 | 1011.4 |
| 20260505180716 | 8 | 348 | 12.9 | 25.7 | 0.00 | 0.00 | 0.00 | 49 | 1011.5 |
| 20260505180605 | 8 | 5 | 9.7 | 24.1 | 0.00 | 0.00 | 0.00 | 48 | 1011.4 |
| 20260505180509 | 8 | 314 | 12.9 | 24.1 | 0.00 | 0.00 | 0.00 | 47 | 1011.3 |
| 20260505180431 | 8 | 328 | 16.1 | 24.1 | 0.00 | 0.00 | 0.00 | 48 | 1011.3 |
| 20260505180309 | 8 | 294 | 14.5 | 24.1 | 0.00 | 0.00 | 0.00 | 48 | 1011.4 |
| 20260505180214 | 8 | 326 | 12.9 | 24.1 | 0.00 | 0.00 | 0.00 | 48 | 1011.4 |
| 20260505180116 | 8 | 348 | 11.3 | 27.4 | 0.00 | 0.00 | 0.00 | 48 | 1011.4 |
| 20260505180021 | 8 | 334 | 11.3 | 27.4 | 0.00 | 0.00 | 0.00 | 48 | 1011.4 |
| 20260505175930 | 8 | 338 | 14.5 | 27.4 | 0.00 | 0.00 | 0.00 | 47 | 1011.5 |
| 20260505175807 | 8 | 345 | 14.5 | 30.6 | 0.00 | 0.00 | 0.00 | 47 | 1011.5 |
| 20260505175731 | 8 | 348 | 16.1 | 30.6 | 0.00 | 0.00 | 0.00 | 46 | 1011.4 |
| 20260505175611 | 8 | 333 | 17.7 | 30.6 | 0.00 | 0.00 | 0.00 | 47 | 1011.3 |
| 20260505175512 | 8 | 344 | 19.3 | 30.6 | 0.00 | 0.00 | 0.00 | 46 | 1011.4 |
| 20260505175413 | 8 | 339 | 19.3 | 32.2 | 0.00 | 0.00 | 0.00 | 45 | 1011.4 |
| 20260505175315 | 8 | 355 | 17.7 | 32.2 | 0.00 | 0.00 | 0.00 | 47 | 1011.4 |
| 20260505175223 | 8 | 318 | 16.1 | 32.2 | 0.00 | 0.00 | 0.00 | 48 | 1011.5 |
| 20260505175123 | 8 | 325 | 19.3 | 32.2 | 0.00 | 0.00 | 0.00 | 47 | 1011.5 |
| 20260505175026 | 8 | 330 | 22.5 | 32.2 | 0.00 | 0.00 | 0.00 | 46 | 1011.4 |
| 20260505174907 | 8 | 360 | 20.9 | 32.2 | 0.00 | 0.00 | 0.00 | 47 | 1011.4 |
| 20260505174811 | 8 | 5 | 22.5 | 32.2 | 0.00 | 0.00 | 0.00 | 47 | 1011.5 |
| 20260505174716 | 8 | 340 | 22.5 | 32.2 | 0.00 | 0.00 | 0.00 | 48 | 1011.7 |
| 20260505174645 | 8 | 355 | 20.9 | 32.2 | 0.00 | 0.00 | 0.00 | 47 | 1011.4 |
| 20260505174548 | 8 | 20 | 20.9 | 32.2 | 0.00 | 0.00 | 0.00 | 47 | 1011.4 |
| 20260505174405 | 8 | 360 | 20.9 | 30.6 | 0.00 | 0.00 | 0.00 | 47 | 1011.4 |
| 20260505174309 | 8 | 38 | 19.3 | 30.6 | 0.00 | 0.00 | 0.00 | 48 | 1011.4 |
| 20260505174214 | 8 | 346 | 16.1 | 30.6 | 0.00 | 0.00 | 0.00 | 47 | 1011.6 |
| 20260505174117 | 8 | 329 | 17.7 | 30.6 | 0.00 | 0.00 | 0.00 | 47 | 1011.6 |
| 20260505174021 | 8 | 27 | 20.9 | 30.6 | 0.00 | 0.00 | 0.00 | 46 | 1011.6 |
| 20260505173926 | 8 | 328 | 20.9 | 30.6 | 0.00 | 0.00 | 0.00 | 45 | 1011.6 |
| 20260505173808 | 8 | 336 | 16.1 | 27.4 | 0.00 | 0.00 | 0.00 | 47 | 1011.5 |
| 20260505173712 | 8 | 11 | 14.5 | 20.9 | 0.00 | 0.00 | 0.00 | 46 | 1011.4 |
| 20260505173615 | 8 | 303 | 12.9 | 24.1 | 0.00 | 0.00 | 0.00 | 47 | 1011.4 |
| 20260505173518 | 8 | 313 | 11.3 | 24.1 | 0.00 | 0.00 | 0.00 | 49 | 1011.3 |
| 20260505173441 | 8 | 327 | 12.9 | 24.1 | 0.00 | 0.00 | 0.00 | 48 | 1011.3 |
| 20260505173343 | 8 | 309 | 12.9 | 24.1 | 0.00 | 0.00 | 0.00 | 49 | 1011.3 |
| 20260505173250 | 8 | 301 | 11.3 | 24.1 | 0.00 | 0.00 | 0.00 | 47 | 1011.3 |
| 20260505173107 | 8 | 12 | 9.7 | 25.7 | 0.00 | 0.00 | 0.00 | 48 | 1011.3 |
| 20260505173010 | 8 | 38 | 12.9 | 25.7 | 0.00 | 0.00 | 0.00 | 48 | 1011.4 |
| 20260505172915 | 8 | 32 | 16.1 | 25.7 | 0.00 | 0.00 | 0.00 | 47 | 1011.3 |
| 20260505172839 | 8 | 345 | 12.9 | 25.7 | 0.00 | 0.00 | 0.00 | 47 | 1011.4 |
| 20260505172721 | 8 | 5 | 6.4 | 25.7 | 0.00 | 0.00 | 0.00 | 49 | 1011.3 |
| 20260505172609 | 8 | 194 | 8.0 | 25.7 | 0.00 | 0.00 | 0.00 | 47 | 1011.3 |
| 20260505172513 | 8 | 355 | 12.9 | 25.7 | 0.00 | 0.00 | 0.00 | 49 | 1011.3 |
| 20260505172418 | 8 | 5 | 12.9 | 25.7 | 0.00 | 0.00 | 0.00 | 48 | 1011.3 |
| 20260505172322 | 8 | 337 | 12.9 | 25.7 | 0.00 | 0.00 | 0.00 | 51 | 1011.3 |
| 20260505172206 | 8 | 284 | 14.5 | 25.7 | 0.00 | 0.00 | 0.00 | 48 | 1011.3 |
| 20260505172110 | 8 | 340 | 14.5 | 25.7 | 0.00 | 0.00 | 0.00 | 47 | 1011.3 |
| 20260505172018 | 8 | 346 | 12.9 | 25.7 | 0.00 | 0.00 | 0.00 | 48 | 1011.3 |
| 20260505171921 | 8 | 329 | 12.9 | 25.7 | 0.00 | 0.00 | 0.00 | 48 | 1011.4 |
| 20260505171824 | 8 | 325 | 16.1 | 25.7 | 0.00 | 0.00 | 0.00 | 47 | 1011.4 |
| 20260505171728 | 8 | 347 | 16.1 | 25.7 | 0.00 | 0.00 | 0.00 | 47 | 1011.4 |
| 20260505171610 | 8 | 355 | 14.5 | 25.7 | 0.00 | 0.00 | 0.00 | 52 | 1011.5 |
| 20260505171513 | 8 | 292 | 11.3 | 25.7 | 0.00 | 0.00 | 0.00 | 50 | 1011.4 |
| 20260505171417 | 8 | 20 | 11.3 | 25.7 | 0.00 | 0.00 | 0.00 | 50 | 1011.6 |
| 20260505171305 | 8 | 331 | 12.9 | 25.7 | 0.00 | 0.00 | 0.00 | 50 | 1011.5 |
| 20260505171208 | 8 | 15 | 12.9 | 25.7 | 0.00 | 0.00 | 0.00 | 50 | 1011.5 |
| 20260505171113 | 8 | 16 | 12.9 | 25.7 | 0.00 | 0.00 | 0.00 | 48 | 1011.5 |
| 20260505171037 | 8 | 304 | 16.1 | 27.4 | 0.00 | 0.00 | 0.00 | 49 | 1011.5 |
| 20260505170920 | 8 | 322 | 14.5 | 27.4 | 0.00 | 0.00 | 0.00 | 48 | 1011.6 |
| 20260505170844 | 8 | 322 | 12.9 | 29.0 | 0.00 | 0.00 | 0.00 | 50 | 1011.5 |
| 20260505170710 | 8 | 303 | 14.5 | 29.0 | 0.00 | 0.00 | 0.00 | 48 | 1011.5 |
| 20260505170615 | 8 | 360 | 16.1 | 29.0 | 0.00 | 0.00 | 0.00 | 49 | 1011.6 |
| 20260505170519 | 8 | 336 | 16.1 | 29.0 | 0.00 | 0.00 | 0.00 | 48 | 1011.6 |
| 20260505170442 | 8 | 312 | 14.5 | 29.0 | 0.00 | 0.00 | 0.00 | 49 | 1011.5 |
| 20260505170325 | 8 | 314 | 16.1 | 30.6 | 0.00 | 0.00 | 0.00 | 48 | 1011.4 |
| 20260505170228 | 8 | 308 | 17.7 | 30.6 | 0.00 | 0.00 | 0.00 | 49 | 1011.5 |
| 20260505170105 | 8 | 333 | 17.7 | 30.6 | 0.00 | 0.00 | 0.00 | 48 | 1011.6 |
| 20260505170012 | 8 | 339 | 14.5 | 30.6 | 0.00 | 0.00 | 0.00 | 48 | 1011.6 |
| 20260505165914 | 8 | 325 | 14.5 | 30.6 | 0.00 | 0.00 | 0.00 | 47 | 1011.4 |
| 20260505165816 | 8 | 355 | 14.5 | 30.6 | 0.00 | 0.00 | 0.00 | 49 | 1011.6 |
| 20260505165740 | 8 | 314 | 16.1 | 30.6 | 0.00 | 0.00 | 0.00 | 50 | 1011.5 |
| 20260505165642 | 8 | 314 | 20.9 | 30.6 | 0.00 | 0.00 | 0.00 | 49 | 1011.7 |
| 20260505165505 | 8 | 345 | 14.5 | 30.6 | 0.00 | 0.00 | 0.00 | 51 | 1011.7 |
| 20260505165409 | 7 | 18 | 9.7 | 24.1 | 0.00 | 0.00 | 0.00 | 52 | 1011.6 |
| 20260505165317 | 7 | 11 | 11.3 | 20.9 | 0.00 | 0.00 | 0.00 | 50 | 1011.5 |
| 20260505165220 | 7 | 346 | 9.7 | 20.9 | 0.00 | 0.00 | 0.00 | 52 | 1011.6 |
| 20260505165144 | 7 | 355 | 8.0 | 20.9 | 0.00 | 0.00 | 0.00 | 52 | 1011.7 |
| 20260505165028 | 7 | 325 | 11.3 | 20.9 | 0.00 | 0.00 | 0.00 | 51 | 1011.7 |
| 20260505164904 | 7 | 5 | 14.5 | 20.9 | 0.00 | 0.00 | 0.00 | 49 | 1011.6 |
| 20260505164809 | 7 | 355 | 12.9 | 20.9 | 0.00 | 0.00 | 0.00 | 50 | 1011.6 |
| 20260505164717 | 7 | 49 | 11.3 | 20.9 | 0.00 | 0.00 | 0.00 | 50 | 1011.7 |
| 20260505164620 | 7 | 15 | 12.9 | 20.9 | 0.00 | 0.00 | 0.00 | 50 | 1011.6 |
| 20260505164523 | 7 | 317 | 14.5 | 20.9 | 0.00 | 0.00 | 0.00 | 49 | 1011.7 |
| 20260505164428 | 7 | 328 | 14.5 | 20.9 | 0.00 | 0.00 | 0.00 | 51 | 1011.6 |
| 20260505164305 | 7 | 335 | 8.0 | 20.9 | 0.00 | 0.00 | 0.00 | 52 | 1011.6 |
| 20260505164210 | 7 | 350 | 4.8 | 22.5 | 0.00 | 0.00 | 0.00 | 52 | 1011.6 |
| 20260505164117 | 7 | 309 | 6.4 | 24.1 | 0.00 | 0.00 | 0.00 | 53 | 1011.6 |
| 20260505164021 | 7 | 294 | 9.7 | 24.1 | 0.00 | 0.00 | 0.00 | 51 | 1011.6 |
| 20260505163945 | 7 | 325 | 9.7 | 24.1 | 0.00 | 0.00 | 0.00 | 51 | 1011.6 |
| 20260505163808 | 7 | 306 | 9.7 | 24.1 | 0.00 | 0.00 | 0.00 | 49 | 1011.6 |
| 20260505163711 | 7 | 5 | 11.3 | 24.1 | 0.00 | 0.00 | 0.00 | 50 | 1011.6 |
| 20260505163616 | 7 | 5 | 9.7 | 24.1 | 0.00 | 0.00 | 0.00 | 51 | 1011.6 |
| 20260505163520 | 7 | 22 | 12.9 | 24.1 | 0.00 | 0.00 | 0.00 | 51 | 1011.6 |
| 20260505163427 | 7 | 355 | 14.5 | 24.1 | 0.00 | 0.00 | 0.00 | 50 | 1011.6 |
| 20260505163329 | 7 | 355 | 9.7 | 24.1 | 0.00 | 0.00 | 0.00 | 52 | 1011.7 |
| 20260505163213 | 7 | 314 | 8.0 | 20.9 | 0.00 | 0.00 | 0.00 | 52 | 1011.6 |
| 20260505163118 | 7 | 334 | 12.9 | 25.7 | 0.00 | 0.00 | 0.00 | 50 | 1011.5 |
| 20260505163022 | 7 | 344 | 11.3 | 30.6 | 0.00 | 0.00 | 0.00 | 52 | 1011.6 |
| 20260505162906 | 7 | 331 | 9.7 | 30.6 | 0.00 | 0.00 | 0.00 | 51 | 1011.6 |
| 20260505162830 | 7 | 342 | 9.7 | 30.6 | 0.00 | 0.00 | 0.00 | 51 | 1011.5 |
| 20260505162717 | 7 | 9 | 9.7 | 30.6 | 0.00 | 0.00 | 0.00 | 50 | 1011.4 |
| 20260505162622 | 7 | 355 | 9.7 | 30.6 | 0.00 | 0.00 | 0.00 | 49 | 1011.6 |
| 20260505162526 | 7 | 40 | 11.3 | 30.6 | 0.00 | 0.00 | 0.00 | 50 | 1011.4 |
| 20260505162409 | 7 | 315 | 16.1 | 30.6 | 0.00 | 0.00 | 0.00 | 50 | 1011.5 |
| 20260505162332 | 7 | 10 | 20.9 | 30.6 | 0.00 | 0.00 | 0.00 | 48 | 1011.5 |
| 20260505162212 | 8 | 17 | 22.5 | 30.6 | 0.00 | 0.00 | 0.00 | 48 | 1011.4 |
| 20260505162117 | 8 | 347 | 19.3 | 30.6 | 0.00 | 0.00 | 0.00 | 49 | 1011.2 |
| 20260505162005 | 8 | 351 | 12.9 | 29.0 | 0.00 | 0.00 | 0.00 | 50 | 1011.3 |
| 20260505161909 | 8 | 351 | 14.5 | 30.6 | 0.00 | 0.00 | 0.00 | 51 | 1011.4 |
| 20260505161833 | 8 | 53 | 14.5 | 32.2 | 0.00 | 0.00 | 0.00 | 49 | 1011.5 |
| 20260505161716 | 8 | 51 | 14.5 | 32.2 | 0.00 | 0.00 | 0.00 | 52 | 1011.4 |
| 20260505161619 | 8 | 345 | 14.5 | 32.2 | 0.00 | 0.00 | 0.00 | 50 | 1011.4 |
| 20260505161522 | 8 | 23 | 14.5 | 32.2 | 0.00 | 0.00 | 0.00 | 49 | 1011.5 |
| 20260505161429 | 8 | 56 | 12.9 | 32.2 | 0.00 | 0.00 | 0.00 | 50 | 1011.4 |
| 20260505161352 | 8 | 348 | 16.1 | 32.2 | 0.00 | 0.00 | 0.00 | 49 | 1011.7 |
| 20260505161207 | 8 | 314 | 22.5 | 32.2 | 0.00 | 0.00 | 0.00 | 50 | 1011.6 |
| 20260505161110 | 8 | 350 | 24.1 | 32.2 | 0.00 | 0.00 | 0.00 | 49 | 1011.4 |
| 20260505161033 | 8 | 32 | 19.3 | 35.4 | 0.00 | 0.00 | 0.00 | 52 | 1011.8 |
| 20260505160915 | 7 | 360 | 12.9 | 35.4 | 0.00 | 0.00 | 0.00 | 52 | 1011.5 |
| 20260505160818 | 7 | 35 | 12.9 | 35.4 | 0.00 | 0.00 | 0.00 | 54 | 1011.5 |
| 20260505160706 | 7 | 20 | 14.5 | 35.4 | 0.00 | 0.00 | 0.00 | 52 | 1011.8 |
| 20260505160628 | 7 | 355 | 17.7 | 35.4 | 0.00 | 0.00 | 0.00 | 53 | 1011.4 |
| 20260505160531 | 7 | 319 | 19.3 | 35.4 | 0.00 | 0.00 | 0.00 | 50 | 1011.6 |
| 20260505160406 | 7 | 355 | 22.5 | 35.4 | 0.00 | 0.00 | 0.00 | 50 | 1011.7 |
| 20260505160309 | 7 | 321 | 27.4 | 35.4 | 0.00 | 0.00 | 0.00 | 50 | 1011.4 |
| 20260505160233 | 7 | 320 | 24.1 | 35.4 | 0.00 | 0.00 | 0.00 | 53 | 1011.3 |
| 20260505160114 | 7 | 317 | 16.1 | 30.6 | 0.00 | 0.00 | 0.00 | 53 | 1011.2 |
| 20260505153339 | 7 | 24 | 12.9 | 25.7 | 0.00 | 0.00 | 0.00 | 51 | 1011.7 |
| 20260505153223 | 7 | 343 | 16.1 | 25.7 | 0.00 | 0.00 | 0.00 | 50 | 1011.5 |
| 20260505153108 | 7 | 360 | 12.9 | 25.7 | 0.00 | 0.00 | 0.00 | 51 | 1011.6 |
| 20260505153012 | 7 | 30 | 12.9 | 25.7 | 0.00 | 0.00 | 0.00 | 50 | 1011.6 |
| 20260505152932 | 7 | 5 | 16.1 | 25.7 | 0.00 | 0.00 | 0.00 | 50 | 1011.7 |
| 20260505152806 | 7 | 350 | 16.1 | 25.7 | 0.00 | 0.00 | 0.00 | 51 | 1011.6 |
| 20260505152731 | 7 | 355 | 16.1 | 25.7 | 0.00 | 0.00 | 0.00 | 51 | 1011.6 |
| 20260505152633 | 7 | 21 | 17.7 | 25.7 | 0.00 | 0.00 | 0.00 | 51 | 1011.7 |
| 20260505152536 | 7 | 312 | 17.7 | 25.7 | 0.00 | 0.00 | 0.00 | 53 | 1011.6 |
| 20260505152418 | 7 | 29 | 16.1 | 30.6 | 0.00 | 0.00 | 0.00 | 53 | 1011.6 |
| 20260505152305 | 7 | 10 | 16.1 | 30.6 | 0.00 | 0.00 | 0.00 | 51 | 1011.4 |
| 20260505152228 | 7 | 5 | 11.3 | 30.6 | 0.00 | 0.00 | 0.00 | 51 | 1011.6 |
| 20260505152131 | 7 | 340 | 11.3 | 30.6 | 0.00 | 0.00 | 0.00 | 51 | 1011.4 |
| 20260505152007 | 7 | 323 | 11.3 | 30.6 | 0.00 | 0.00 | 0.00 | 51 | 1011.4 |
| 20260505151910 | 7 | 295 | 11.3 | 30.6 | 0.00 | 0.00 | 0.00 | 53 | 1011.4 |
| 20260505151813 | 7 | 288 | 14.5 | 30.6 | 0.00 | 0.00 | 0.00 | 53 | 1011.4 |
| 20260505151716 | 7 | 5 | 19.3 | 30.6 | 0.00 | 0.00 | 0.00 | 52 | 1011.4 |
| 20260505151643 | 7 | 342 | 16.1 | 30.6 | 0.00 | 0.00 | 0.00 | 53 | 1011.3 |
| 20260505151505 | 7 | 355 | 11.3 | 29.0 | 0.00 | 0.00 | 0.00 | 53 | 1011.4 |
| 20260505151408 | 7 | 297 | 11.3 | 29.0 | 0.00 | 0.00 | 0.00 | 53 | 1011.4 |
| 20260505151331 | 7 | 5 | 11.3 | 29.0 | 0.00 | 0.00 | 0.00 | 51 | 1011.4 |
| 20260505151207 | 7 | 320 | 11.3 | 29.0 | 0.00 | 0.00 | 0.00 | 51 | 1011.4 |
| 20260505151110 | 7 | 298 | 12.9 | 29.0 | 0.00 | 0.00 | 0.00 | 51 | 1011.4 |
| 20260505151035 | 7 | 5 | 16.1 | 29.0 | 0.00 | 0.00 | 0.00 | 51 | 1011.4 |
| 20260505150921 | 7 | 19 | 19.3 | 29.0 | 0.00 | 0.00 | 0.00 | 51 | 1011.4 |
| 20260505150826 | 7 | 348 | 17.7 | 29.0 | 0.00 | 0.00 | 0.00 | 50 | 1011.4 |
| 20260505150727 | 7 | 346 | 12.9 | 29.0 | 0.00 | 0.00 | 0.00 | 52 | 1011.4 |
| 20260505150611 | 7 | 318 | 12.9 | 29.0 | 0.00 | 0.00 | 0.00 | 52 | 1011.5 |
| 20260505150513 | 7 | 320 | 14.5 | 29.0 | 0.00 | 0.00 | 0.00 | 52 | 1011.5 |
| 20260505150436 | 7 | 337 | 16.1 | 29.0 | 0.00 | 0.00 | 0.00 | 51 | 1011.5 |
| 20260505150337 | 7 | 5 | 16.1 | 29.0 | 0.00 | 0.00 | 0.00 | 51 | 1011.4 |
| 20260505150221 | 7 | 342 | 16.1 | 29.0 | 0.00 | 0.00 | 0.00 | 52 | 1011.4 |
| 20260505150126 | 7 | 360 | 19.3 | 29.0 | 0.00 | 0.00 | 0.00 | 50 | 1011.3 |
| 20260505140622 | 6 | 33 | 9.7 | 16.1 | 0.00 | 0.00 | 0.00 | 53 | 1011.2 |
| 20260505140509 | 6 | 330 | 8.0 | 20.9 | 0.00 | 0.00 | 0.00 | 53 | 1011.2 |
| 20260505140410 | 6 | 11 | 6.4 | 20.9 | 0.00 | 0.00 | 0.00 | 54 | 1011.1 |
| 20260505140312 | 6 | 32 | 8.0 | 20.9 | 0.00 | 0.00 | 0.00 | 54 | 1011.1 |
| 20260505140215 | 6 | 24 | 8.0 | 20.9 | 0.00 | 0.00 | 0.00 | 54 | 1011.2 |
| 20260505140115 | 6 | 355 | 8.0 | 20.9 | 0.00 | 0.00 | 0.00 | 53 | 1011.1 |
| 20260505130312 | 4 | 360 | 16.1 | 27.4 | 0.00 | 0.00 | 0.00 | 56 | 1010.4 |
| 20260505130217 | 4 | 14 | 12.9 | 27.4 | 0.00 | 0.00 | 0.00 | 57 | 1010.4 |
| 20260505130126 | 4 | 355 | 12.9 | 27.4 | 0.00 | 0.00 | 0.00 | 57 | 1010.3 |
| 20260505125041 | 4 | 345 | 12.9 | 24.1 | 0.00 | 0.00 | 0.00 | 58 | 1010.1 |
| 20260505124907 | 4 | 15 | 11.3 | 19.3 | 0.00 | 0.00 | 0.00 | 58 | 1010.0 |
| 20260505124812 | 4 | 360 | 12.9 | 20.9 | 0.00 | 0.00 | 0.00 | 58 | 1010.1 |
| 20260505124717 | 4 | 13 | 11.3 | 22.5 | 0.00 | 0.00 | 0.00 | 59 | 1010.1 |
| 20260505124622 | 3 | 342 | 9.7 | 22.5 | 0.00 | 0.00 | 0.00 | 59 | 1010.0 |
| 20260505124507 | 3 | 5 | 8.0 | 22.5 | 0.00 | 0.00 | 0.00 | 59 | 1010.0 |
| 20260505124411 | 3 | 360 | 9.7 | 22.5 | 0.00 | 0.00 | 0.00 | 59 | 1010.1 |
| 20260505124335 | 3 | 32 | 8.0 | 22.5 | 0.00 | 0.00 | 0.00 | 59 | 1010.0 |
| 20260505124223 | 3 | 5 | 9.7 | 22.5 | 0.00 | 0.00 | 0.00 | 59 | 1010.0 |
| 20260505124106 | 3 | 15 | 12.9 | 22.5 | 0.00 | 0.00 | 0.00 | 58 | 1010.1 |
| 20260505124010 | 3 | 360 | 16.1 | 22.5 | 0.00 | 0.00 | 0.00 | 58 | 1010.1 |
| 20260505123913 | 3 | 23 | 14.5 | 22.5 | 0.00 | 0.00 | 0.00 | 59 | 1010.0 |
| 20260505123838 | 3 | 12 | 11.3 | 20.9 | 0.00 | 0.00 | 0.00 | 59 | 1010.1 |
| 20260505123741 | 3 | 52 | 11.3 | 20.9 | 0.00 | 0.00 | 0.00 | 59 | 1010.0 |
| 20260505123609 | 3 | 36 | 9.7 | 20.9 | 0.00 | 0.00 | 0.00 | 60 | 1009.9 |
| 20260505123513 | 3 | 43 | 9.7 | 24.1 | 0.00 | 0.00 | 0.00 | 60 | 1009.9 |
| 20260505123438 | 3 | 351 | 12.9 | 24.1 | 0.00 | 0.00 | 0.00 | 60 | 1009.9 |
| 20260505123340 | 3 | 15 | 12.9 | 24.1 | 0.00 | 0.00 | 0.00 | 60 | 1009.9 |
| 20260505123223 | 3 | 38 | 12.9 | 24.1 | 0.00 | 0.00 | 0.00 | 60 | 1009.9 |
| 20260505123107 | 3 | 22 | 11.3 | 24.1 | 0.00 | 0.00 | 0.00 | 61 | 1009.8 |
| 20260505123012 | 3 | 360 | 9.7 | 24.1 | 0.00 | 0.00 | 0.00 | 61 | 1009.9 |
| 20260505122937 | 3 | 17 | 9.7 | 24.1 | 0.00 | 0.00 | 0.00 | 61 | 1009.9 |
| 20260505122844 | 3 | 355 | 12.9 | 24.1 | 0.00 | 0.00 | 0.00 | 61 | 1009.8 |
| 20260505122727 | 3 | 5 | 12.9 | 24.1 | 0.00 | 0.00 | 0.00 | 61 | 1009.8 |
| 20260505122630 | 3 | 320 | 12.9 | 20.9 | 0.00 | 0.00 | 0.00 | 61 | 1009.8 |
| 20260505122508 | 3 | 355 | 9.7 | 20.9 | 0.00 | 0.00 | 0.00 | 62 | 1009.8 |
| 20260505122413 | 3 | 345 | 9.7 | 17.7 | 0.00 | 0.00 | 0.00 | 63 | 1009.8 |
| 20260505122333 | 3 | 21 | 9.7 | 17.7 | 0.00 | 0.00 | 0.00 | 63 | 1009.8 |
| 20260505122208 | 3 | 17 | 11.3 | 17.7 | 0.00 | 0.00 | 0.00 | 63 | 1009.7 |
| 20260505122112 | 3 | 28 | 9.7 | 17.7 | 0.00 | 0.00 | 0.00 | 63 | 1009.8 |
| 20260505122033 | 3 | 20 | 9.7 | 17.7 | 0.00 | 0.00 | 0.00 | 63 | 1009.8 |
| 20260505121953 | 3 | 16 | 9.7 | 17.7 | 0.00 | 0.00 | 0.00 | 63 | 1009.7 |
| 20260505121805 | 3 | 9 | 11.3 | 17.7 | 0.00 | 0.00 | 0.00 | 63 | 1009.8 |
| 20260505121710 | 3 | 355 | 11.3 | 17.7 | 0.00 | 0.00 | 0.00 | 63 | 1009.7 |
| 20260505121614 | 3 | 44 | 11.3 | 17.7 | 0.00 | 0.00 | 0.00 | 63 | 1009.7 |
| 20260505121519 | 3 | 46 | 11.3 | 17.7 | 0.00 | 0.00 | 0.00 | 64 | 1009.7 |
| 20260505121407 | 3 | 360 | 12.9 | 17.7 | 0.00 | 0.00 | 0.00 | 63 | 1009.7 |
| 20260505121310 | 3 | 24 | 14.5 | 17.7 | 0.00 | 0.00 | 0.00 | 63 | 1009.7 |
| 20260505121215 | 3 | 355 | 11.3 | 16.1 | 0.00 | 0.00 | 0.00 | 64 | 1009.7 |
| 20260505121115 | 3 | 355 | 11.3 | 16.1 | 0.00 | 0.00 | 0.00 | 64 | 1009.6 |
| 20260505121016 | 3 | 5 | 12.9 | 16.1 | 0.00 | 0.00 | 0.00 | 64 | 1009.7 |
| 20260505120918 | 3 | 360 | 9.7 | 16.1 | 0.00 | 0.00 | 0.00 | 65 | 1009.6 |
| 20260505120822 | 3 | 350 | 8.0 | 16.1 | 0.00 | 0.00 | 0.00 | 65 | 1009.6 |
| 20260505120722 | 3 | 13 | 8.0 | 16.1 | 0.00 | 0.00 | 0.00 | 65 | 1009.7 |
| 20260505120624 | 3 | 334 | 8.0 | 16.1 | 0.00 | 0.00 | 0.00 | 65 | 1009.6 |
| 20260505120525 | 3 | 343 | 9.7 | 16.1 | 0.00 | 0.00 | 0.00 | 65 | 1009.5 |
| 20260505120407 | 3 | 328 | 9.7 | 17.7 | 0.00 | 0.00 | 0.00 | 65 | 1009.6 |
| 20260505120307 | 3 | 355 | 11.3 | 17.7 | 0.00 | 0.00 | 0.00 | 66 | 1009.5 |
| 20260505120213 | 3 | 355 | 9.7 | 17.7 | 0.00 | 0.00 | 0.00 | 66 | 1009.6 |
| 20260505120114 | 3 | 26 | 8.0 | 17.7 | 0.00 | 0.00 | 0.00 | 66 | 1009.6 |
| 20260505120016 | 3 | 355 | 8.0 | 17.7 | 0.00 | 0.00 | 0.00 | 66 | 1009.5 |
| 20260505115937 | 2 | 339 | 9.7 | 17.7 | 0.00 | 0.00 | 0.00 | 66 | 1009.5 |
| 20260505115838 | 2 | 309 | 9.7 | 17.7 | 0.00 | 0.00 | 0.00 | 66 | 1009.4 |
| 20260505115718 | 2 | 12 | 9.7 | 17.7 | 0.00 | 0.00 | 0.00 | 66 | 1009.5 |
| 20260505115620 | 2 | 20 | 9.7 | 17.7 | 0.00 | 0.00 | 0.00 | 67 | 1009.4 |
| 20260505115526 | 2 | 336 | 9.7 | 17.7 | 0.00 | 0.00 | 0.00 | 67 | 1009.3 |
| 20260505115407 | 2 | 349 | 8.0 | 16.1 | 0.00 | 0.00 | 0.00 | 67 | 1009.4 |
| 20260505115309 | 2 | 344 | 9.7 | 17.7 | 0.00 | 0.00 | 0.00 | 67 | 1009.4 |
| 20260505115230 | 2 | 355 | 11.3 | 19.3 | 0.00 | 0.00 | 0.00 | 67 | 1009.4 |
| 20260505115111 | 2 | 360 | 11.3 | 19.3 | 0.00 | 0.00 | 0.00 | 67 | 1009.4 |
| 20260505115011 | 2 | 350 | 9.7 | 19.3 | 0.00 | 0.00 | 0.00 | 68 | 1009.4 |
| 20260505114933 | 2 | 360 | 8.0 | 19.3 | 0.00 | 0.00 | 0.00 | 68 | 1009.2 |
| 20260505114817 | 2 | 30 | 6.4 | 19.3 | 0.00 | 0.00 | 0.00 | 68 | 1009.3 |
| 20260505114719 | 2 | 325 | 8.0 | 19.3 | 0.00 | 0.00 | 0.00 | 68 | 1009.3 |
| 20260505114620 | 2 | 5 | 12.9 | 19.3 | 0.00 | 0.00 | 0.00 | 68 | 1009.3 |
| 20260505114522 | 2 | 5 | 12.9 | 19.3 | 0.00 | 0.00 | 0.00 | 68 | 1009.3 |
| 20260505114424 | 2 | 28 | 12.9 | 19.3 | 0.00 | 0.00 | 0.00 | 68 | 1009.2 |
| 20260505114325 | 2 | 23 | 11.3 | 19.3 | 0.00 | 0.00 | 0.00 | 68 | 1009.2 |
| 20260505114210 | 2 | 348 | 11.3 | 16.1 | 0.00 | 0.00 | 0.00 | 68 | 1009.3 |
| 20260505114111 | 2 | 337 | 11.3 | 16.1 | 0.00 | 0.00 | 0.00 | 69 | 1009.2 |
| 20260505114011 | 2 | 11 | 11.3 | 19.3 | 0.00 | 0.00 | 0.00 | 69 | 1009.3 |
| 20260505113913 | 2 | 5 | 11.3 | 19.3 | 0.00 | 0.00 | 0.00 | 69 | 1009.2 |
| 20260505113815 | 2 | 348 | 11.3 | 19.3 | 0.00 | 0.00 | 0.00 | 69 | 1009.2 |
| 20260505113716 | 2 | 303 | 11.3 | 19.3 | 0.00 | 0.00 | 0.00 | 69 | 1009.2 |
| 20260505113618 | 2 | 355 | 9.7 | 19.3 | 0.00 | 0.00 | 0.00 | 69 | 1009.2 |
| 20260505113523 | 2 | 344 | 8.0 | 19.3 | 0.00 | 0.00 | 0.00 | 70 | 1009.1 |
| 20260505113443 | 2 | 360 | 11.3 | 20.9 | 0.00 | 0.00 | 0.00 | 70 | 1009.2 |
| 20260505113324 | 2 | 355 | 11.3 | 20.9 | 0.00 | 0.00 | 0.00 | 70 | 1009.1 |
| 20260505113224 | 2 | 346 | 9.7 | 20.9 | 0.00 | 0.00 | 0.00 | 70 | 1009.1 |
| 20260505113145 | 2 | 316 | 8.0 | 20.9 | 0.00 | 0.00 | 0.00 | 70 | 1009.2 |
| 20260505113026 | 2 | 5 | 11.3 | 20.9 | 0.00 | 0.00 | 0.00 | 70 | 1009.1 |
| 20260505112927 | 2 | 10 | 12.9 | 20.9 | 0.00 | 0.00 | 0.00 | 70 | 1009.1 |
| 20260505112832 | 2 | 339 | 14.5 | 20.9 | 0.00 | 0.00 | 0.00 | 71 | 1009.1 |
| 20260505112711 | 2 | 360 | 12.9 | 20.9 | 0.00 | 0.00 | 0.00 | 71 | 1009.1 |
| 20260505112633 | 2 | 360 | 11.3 | 20.9 | 0.00 | 0.00 | 0.00 | 71 | 1009.0 |
| 20260505112534 | 2 | 327 | 9.7 | 19.3 | 0.00 | 0.00 | 0.00 | 71 | 1009.0 |
| 20260505112407 | 2 | 346 | 12.9 | 19.3 | 0.00 | 0.00 | 0.00 | 72 | 1009.0 |
| 20260505112329 | 2 | 341 | 14.5 | 19.3 | 0.00 | 0.00 | 0.00 | 72 | 1008.9 |
| 20260505112209 | 2 | 346 | 9.7 | 19.3 | 0.00 | 0.00 | 0.00 | 72 | 1008.9 |
| 20260505112113 | 2 | 341 | 6.4 | 14.5 | 0.00 | 0.00 | 0.00 | 72 | 1008.9 |
| 20260505112019 | 2 | 331 | 9.7 | 14.5 | 0.00 | 0.00 | 0.00 | 72 | 1008.9 |
| 20260505111921 | 2 | 323 | 9.7 | 14.5 | 0.00 | 0.00 | 0.00 | 72 | 1008.9 |
| 20260505111841 | 2 | 346 | 6.4 | 14.5 | 0.00 | 0.00 | 0.00 | 72 | 1008.9 |
| 20260505111721 | 2 | 360 | 6.4 | 14.5 | 0.00 | 0.00 | 0.00 | 72 | 1008.8 |
| 20260505111622 | 2 | 5 | 8.0 | 14.5 | 0.00 | 0.00 | 0.00 | 72 | 1008.9 |
| 20260505111523 | 2 | 5 | 9.7 | 14.5 | 0.00 | 0.00 | 0.00 | 72 | 1008.8 |
| 20260505111423 | 2 | 360 | 9.7 | 14.5 | 0.00 | 0.00 | 0.00 | 72 | 1008.8 |
| 20260505111308 | 2 | 349 | 8.0 | 12.9 | 0.00 | 0.00 | 0.00 | 72 | 1008.8 |
| 20260505111229 | 2 | 360 | 8.0 | 12.9 | 0.00 | 0.00 | 0.00 | 73 | 1008.8 |
| 20260505111106 | 2 | 355 | 8.0 | 12.9 | 0.00 | 0.00 | 0.00 | 73 | 1008.8 |
| 20260505111010 | 2 | 341 | 6.4 | 16.1 | 0.00 | 0.00 | 0.00 | 73 | 1008.8 |
| 20260505110913 | 2 | 348 | 6.4 | 16.1 | 0.00 | 0.00 | 0.00 | 73 | 1008.8 |
| 20260505110817 | 2 | 347 | 6.4 | 16.1 | 0.00 | 0.00 | 0.00 | 73 | 1008.9 |
| 20260505110725 | 2 | 5 | 6.4 | 16.1 | 0.00 | 0.00 | 0.00 | 73 | 1008.7 |
| 20260505110650 | 2 | 330 | 6.4 | 16.1 | 0.00 | 0.00 | 0.00 | 73 | 1008.9 |
| 20260505110505 | 2 | 326 | 6.4 | 16.1 | 0.00 | 0.00 | 0.00 | 73 | 1008.8 |
| 20260505110430 | 2 | 5 | 6.4 | 16.1 | 0.00 | 0.00 | 0.00 | 73 | 1008.9 |
| 20260505110306 | 2 | 340 | 8.0 | 16.1 | 0.00 | 0.00 | 0.00 | 73 | 1008.9 |
| 20260505110231 | 2 | 344 | 8.0 | 16.1 | 0.00 | 0.00 | 0.00 | 72 | 1008.8 |
| 20260505110113 | 2 | 5 | 8.0 | 16.1 | 0.00 | 0.00 | 0.00 | 72 | 1008.8 |
| 20260505102204 | 2 | 5 | 6.4 | 14.5 | 0.00 | 0.00 | 0.00 | 71 | 1008.7 |
| 20260505102107 | 2 | 337 | 6.4 | 14.5 | 0.00 | 0.00 | 0.00 | 72 | 1008.6 |
| 20260505102015 | 2 | 30 | 8.0 | 14.5 | 0.00 | 0.00 | 0.00 | 71 | 1008.6 |
| 20260505101938 | 2 | 349 | 6.4 | 14.5 | 0.00 | 0.00 | 0.00 | 71 | 1008.5 |
| 20260505101823 | 2 | 350 | 6.4 | 14.5 | 0.00 | 0.00 | 0.00 | 71 | 1008.6 |
| 20260505101707 | 2 | 355 | 6.4 | 14.5 | 0.00 | 0.00 | 0.00 | 71 | 1008.6 |
| 20260505101610 | 2 | 360 | 6.4 | 14.5 | 0.00 | 0.00 | 0.00 | 71 | 1008.6 |
| 20260505101515 | 2 | 346 | 8.0 | 14.5 | 0.00 | 0.00 | 0.00 | 71 | 1008.6 |
| 20260505101420 | 2 | 29 | 8.0 | 14.5 | 0.00 | 0.00 | 0.00 | 71 | 1008.5 |
| 20260505101307 | 2 | 314 | 8.0 | 14.5 | 0.00 | 0.00 | 0.00 | 71 | 1008.5 |
| 20260505101212 | 2 | 347 | 8.0 | 14.5 | 0.00 | 0.00 | 0.00 | 71 | 1008.6 |
| 20260505101117 | 2 | 331 | 9.7 | 14.5 | 0.00 | 0.00 | 0.00 | 71 | 1008.5 |
| 20260505101041 | 2 | 331 | 9.7 | 14.5 | 0.00 | 0.00 | 0.00 | 71 | 1008.6 |
| 20260505100925 | 2 | 355 | 6.4 | 14.5 | 0.00 | 0.00 | 0.00 | 71 | 1008.6 |
| 20260505100808 | 2 | 316 | 6.4 | 12.9 | 0.00 | 0.00 | 0.00 | 71 | 1008.6 |
| 20260505100717 | 2 | 348 | 6.4 | 12.9 | 0.00 | 0.00 | 0.00 | 70 | 1008.6 |
| 20260505100621 | 2 | 339 | 6.4 | 12.9 | 0.00 | 0.00 | 0.00 | 70 | 1008.5 |
| 20260505100505 | 2 | 348 | 6.4 | 12.9 | 0.00 | 0.00 | 0.00 | 70 | 1008.6 |
| 20260505100428 | 2 | 5 | 6.4 | 12.9 | 0.00 | 0.00 | 0.00 | 70 | 1008.6 |
| 20260505100311 | 2 | 339 | 8.0 | 14.5 | 0.00 | 0.00 | 0.00 | 70 | 1008.6 |
| 20260505100236 | 2 | 355 | 8.0 | 14.5 | 0.00 | 0.00 | 0.00 | 70 | 1008.6 |
| 20260505100120 | 2 | 336 | 6.4 | 14.5 | 0.00 | 0.00 | 0.00 | 70 | 1008.6 |
| 20260505100027 | 2 | 16 | 6.4 | 14.5 | 0.00 | 0.00 | 0.00 | 70 | 1008.6 |
| 20260505095904 | 2 | 350 | 8.0 | 14.5 | 0.00 | 0.00 | 0.00 | 70 | 1008.6 |
| 20260505095809 | 2 | 343 | 6.4 | 14.5 | 0.00 | 0.00 | 0.00 | 70 | 1008.7 |
| 20260505095714 | 2 | 336 | 6.4 | 14.5 | 0.00 | 0.00 | 0.00 | 70 | 1008.6 |
| 20260505095617 | 2 | 317 | 8.0 | 14.5 | 0.00 | 0.00 | 0.00 | 70 | 1008.7 |
| 20260505095522 | 2 | 341 | 8.0 | 14.5 | 0.00 | 0.00 | 0.00 | 70 | 1008.6 |
| 20260505095430 | 3 | 355 | 6.4 | 12.9 | 0.00 | 0.00 | 0.00 | 70 | 1008.7 |
| 20260505095307 | 3 | 350 | 6.4 | 12.9 | 0.00 | 0.00 | 0.00 | 70 | 1008.6 |
| 20260505095210 | 3 | 360 | 6.4 | 14.5 | 0.00 | 0.00 | 0.00 | 70 | 1008.6 |
| 20260505095114 | 3 | 333 | 6.4 | 14.5 | 0.00 | 0.00 | 0.00 | 70 | 1008.6 |
| 20260505095018 | 3 | 311 | 6.4 | 14.5 | 0.00 | 0.00 | 0.00 | 70 | 1008.7 |
| 20260505094942 | 3 | 339 | 6.4 | 14.5 | 0.00 | 0.00 | 0.00 | 70 | 1008.6 |
| 20260505094810 | 3 | 339 | 4.8 | 14.5 | 0.00 | 0.00 | 0.00 | 70 | 1008.7 |
| 20260505094715 | 3 | 337 | 4.8 | 17.7 | 0.00 | 0.00 | 0.00 | 70 | 1008.6 |
| 20260505094639 | 3 | 309 | 6.4 | 17.7 | 0.00 | 0.00 | 0.00 | 69 | 1008.7 |
| 20260505094522 | 3 | 346 | 8.0 | 17.7 | 0.00 | 0.00 | 0.00 | 69 | 1008.6 |
| 20260505094407 | 3 | 355 | 8.0 | 17.7 | 0.00 | 0.00 | 0.00 | 70 | 1008.6 |
| 20260505094311 | 3 | 351 | 6.4 | 17.7 | 0.00 | 0.00 | 0.00 | 70 | 1008.6 |
| 20260505094214 | 3 | 349 | 6.4 | 17.7 | 0.00 | 0.00 | 0.00 | 70 | 1008.6 |
| 20260505094142 | 3 | 360 | 8.0 | 17.7 | 0.00 | 0.00 | 0.00 | 69 | 1008.6 |
| 20260505094025 | 3 | 342 | 11.3 | 17.7 | 0.00 | 0.00 | 0.00 | 69 | 1008.6 |
| 20260505093949 | 3 | 329 | 9.7 | 17.7 | 0.00 | 0.00 | 0.00 | 69 | 1008.6 |
| 20260505093805 | 3 | 340 | 8.0 | 17.7 | 0.00 | 0.00 | 0.00 | 69 | 1008.5 |
| 20260505093710 | 3 | 335 | 8.0 | 17.7 | 0.00 | 0.00 | 0.00 | 69 | 1008.5 |
| 20260505093634 | 3 | 327 | 8.0 | 17.7 | 0.00 | 0.00 | 0.00 | 69 | 1008.5 |
| 20260505093518 | 3 | 348 | 8.0 | 17.7 | 0.00 | 0.00 | 0.00 | 69 | 1008.5 |
| 20260505093406 | 3 | 339 | 12.9 | 17.7 | 0.00 | 0.00 | 0.00 | 69 | 1008.4 |
| 20260505093311 | 3 | 333 | 11.3 | 17.7 | 0.00 | 0.00 | 0.00 | 69 | 1008.5 |
| 20260505093215 | 3 | 326 | 8.0 | 17.7 | 0.00 | 0.00 | 0.00 | 69 | 1008.5 |
| 20260505093120 | 3 | 333 | 6.4 | 17.7 | 0.00 | 0.00 | 0.00 | 69 | 1008.4 |
| 20260505093005 | 3 | 350 | 6.4 | 17.7 | 0.00 | 0.00 | 0.00 | 69 | 1008.5 |
| 20260505092909 | 3 | 327 | 8.0 | 17.7 | 0.00 | 0.00 | 0.00 | 68 | 1008.4 |
| 20260505092816 | 3 | 350 | 8.0 | 17.7 | 0.00 | 0.00 | 0.00 | 68 | 1008.4 |
| 20260505092740 | 3 | 327 | 9.7 | 17.7 | 0.00 | 0.00 | 0.00 | 68 | 1008.4 |
| 20260505092624 | 3 | 355 | 9.7 | 16.1 | 0.00 | 0.00 | 0.00 | 68 | 1008.5 |
| 20260505092529 | 3 | 336 | 11.3 | 16.1 | 0.00 | 0.00 | 0.00 | 68 | 1008.4 |
| 20260505092413 | 3 | 321 | 8.0 | 16.1 | 0.00 | 0.00 | 0.00 | 69 | 1008.4 |
| 20260505092318 | 3 | 329 | 8.0 | 16.1 | 0.00 | 0.00 | 0.00 | 69 | 1008.4 |
| 20260505092243 | 3 | 346 | 8.0 | 16.1 | 0.00 | 0.00 | 0.00 | 69 | 1008.4 |
| 20260505092130 | 3 | 343 | 8.0 | 14.5 | 0.00 | 0.00 | 0.00 | 68 | 1008.4 |
| 20260505092007 | 3 | 333 | 9.7 | 14.5 | 0.00 | 0.00 | 0.00 | 68 | 1008.4 |
| 20260505091911 | 3 | 310 | 9.7 | 17.7 | 0.00 | 0.00 | 0.00 | 69 | 1008.4 |
| 20260505091815 | 3 | 342 | 8.0 | 17.7 | 0.00 | 0.00 | 0.00 | 68 | 1008.4 |
| 20260505091719 | 3 | 350 | 8.0 | 17.7 | 0.00 | 0.00 | 0.00 | 68 | 1008.3 |
| 20260505091643 | 3 | 348 | 4.8 | 20.9 | 0.00 | 0.00 | 0.00 | 68 | 1008.4 |
| 20260505091511 | 3 | 13 | 6.4 | 20.9 | 0.00 | 0.00 | 0.00 | 68 | 1008.3 |
| 20260505091416 | 3 | 319 | 6.4 | 20.9 | 0.00 | 0.00 | 0.00 | 68 | 1008.3 |
| 20260505091320 | 3 | 291 | 6.4 | 20.9 | 0.00 | 0.00 | 0.00 | 67 | 1008.3 |
| 20260505091224 | 3 | 339 | 9.7 | 20.9 | 0.00 | 0.00 | 0.00 | 67 | 1008.3 |
| 20260505091108 | 3 | 325 | 9.7 | 20.9 | 0.00 | 0.00 | 0.00 | 67 | 1008.3 |
| 20260505091013 | 3 | 342 | 8.0 | 20.9 | 0.00 | 0.00 | 0.00 | 67 | 1008.3 |
| 20260505090922 | 3 | 355 | 11.3 | 20.9 | 0.00 | 0.00 | 0.00 | 67 | 1008.2 |
| 20260505090826 | 3 | 355 | 14.5 | 20.9 | 0.00 | 0.00 | 0.00 | 67 | 1008.2 |
| 20260505090729 | 3 | 355 | 12.9 | 20.9 | 0.00 | 0.00 | 0.00 | 67 | 1008.1 |
| 20260505090605 | 3 | 355 | 12.9 | 22.5 | 0.00 | 0.00 | 0.00 | 67 | 1008.1 |
| 20260505090509 | 3 | 9 | 12.9 | 22.5 | 0.00 | 0.00 | 0.00 | 67 | 1008.2 |
| 20260505090414 | 3 | 350 | 9.7 | 22.5 | 0.00 | 0.00 | 0.00 | 67 | 1008.1 |
| 20260505090319 | 3 | 319 | 11.3 | 22.5 | 0.00 | 0.00 | 0.00 | 67 | 1008.2 |
| 20260505090227 | 3 | 341 | 9.7 | 22.5 | 0.00 | 0.00 | 0.00 | 67 | 1008.1 |
| 20260505090130 | 3 | 334 | 6.4 | 22.5 | 0.00 | 0.00 | 0.00 | 67 | 1008.2 |
| 20260505090007 | 3 | 22 | 8.0 | 22.5 | 0.00 | 0.00 | 0.00 | 67 | 1008.1 |
| 20260505085912 | 3 | 348 | 12.9 | 22.5 | 0.00 | 0.00 | 0.00 | 66 | 1008.1 |
| 20260505085816 | 3 | 355 | 12.9 | 22.5 | 0.00 | 0.00 | 0.00 | 66 | 1008.1 |
| 20260505085720 | 3 | 323 | 11.3 | 22.5 | 0.00 | 0.00 | 0.00 | 66 | 1008.1 |
| 20260505085628 | 3 | 360 | 14.5 | 25.7 | 0.00 | 0.00 | 0.00 | 66 | 1008.2 |
| 20260505085506 | 3 | 19 | 12.9 | 25.7 | 0.00 | 0.00 | 0.00 | 66 | 1008.2 |
| 20260505085430 | 3 | 360 | 12.9 | 25.7 | 0.00 | 0.00 | 0.00 | 66 | 1008.2 |
| 20260505085308 | 3 | 338 | 16.1 | 25.7 | 0.00 | 0.00 | 0.00 | 66 | 1008.1 |
| 20260505085212 | 3 | 345 | 14.5 | 25.7 | 0.00 | 0.00 | 0.00 | 66 | 1008.2 |
| 20260505085137 | 3 | 345 | 9.7 | 25.7 | 0.00 | 0.00 | 0.00 | 67 | 1008.2 |
| 20260505085020 | 3 | 327 | 12.9 | 25.7 | 0.00 | 0.00 | 0.00 | 67 | 1008.2 |
| 20260505084928 | 3 | 345 | 16.1 | 25.7 | 0.00 | 0.00 | 0.00 | 66 | 1008.2 |
| 20260505084830 | 3 | 5 | 16.1 | 25.7 | 0.00 | 0.00 | 0.00 | 66 | 1008.1 |
| 20260505084708 | 3 | 355 | 14.5 | 24.1 | 0.00 | 0.00 | 0.00 | 66 | 1008.1 |
| 20260505084631 | 3 | 334 | 12.9 | 24.1 | 0.00 | 0.00 | 0.00 | 66 | 1008.1 |
| 20260505084514 | 3 | 43 | 9.7 | 24.1 | 0.00 | 0.00 | 0.00 | 66 | 1008.1 |
| 20260505084416 | 3 | 327 | 12.9 | 24.1 | 0.00 | 0.00 | 0.00 | 66 | 1008.0 |
| 20260505084319 | 3 | 21 | 14.5 | 24.1 | 0.00 | 0.00 | 0.00 | 66 | 1008.1 |
| 20260505084206 | 3 | 338 | 16.1 | 22.5 | 0.00 | 0.00 | 0.00 | 66 | 1008.0 |
| 20260505084130 | 3 | 344 | 17.7 | 22.5 | 0.00 | 0.00 | 0.00 | 66 | 1008.0 |
| 20260505084031 | 3 | 342 | 17.7 | 22.5 | 0.00 | 0.00 | 0.00 | 66 | 1008.0 |
| 20260505083913 | 3 | 319 | 16.1 | 22.5 | 0.00 | 0.00 | 0.00 | 66 | 1007.9 |
| 20260505083816 | 3 | 350 | 14.5 | 22.5 | 0.00 | 0.00 | 0.00 | 66 | 1007.9 |
| 20260505083720 | 3 | 313 | 14.5 | 22.5 | 0.00 | 0.00 | 0.00 | 66 | 1007.9 |
| 20260505083606 | 3 | 343 | 12.9 | 22.5 | 0.00 | 0.00 | 0.00 | 66 | 1007.9 |
| 20260505083529 | 3 | 34 | 9.7 | 20.9 | 0.00 | 0.00 | 0.00 | 66 | 1007.9 |
| 20260505083406 | 3 | 341 | 8.0 | 22.5 | 0.00 | 0.00 | 0.00 | 66 | 1007.8 |
| 20260505083309 | 3 | 355 | 8.0 | 22.5 | 0.00 | 0.00 | 0.00 | 66 | 1007.7 |
| 20260505083211 | 3 | 355 | 8.0 | 22.5 | 0.00 | 0.00 | 0.00 | 66 | 1007.8 |
| 20260505083114 | 3 | 297 | 11.3 | 22.5 | 0.00 | 0.00 | 0.00 | 66 | 1007.8 |
| 20260505083017 | 4 | 335 | 12.9 | 22.5 | 0.00 | 0.00 | 0.00 | 66 | 1007.7 |
| 20260505082904 | 3 | 11 | 11.3 | 22.5 | 0.00 | 0.00 | 0.00 | 66 | 1007.7 |
| 20260505082807 | 3 | 311 | 12.9 | 22.5 | 0.00 | 0.00 | 0.00 | 66 | 1007.7 |
| 20260505082710 | 4 | 332 | 12.9 | 22.5 | 0.00 | 0.00 | 0.00 | 66 | 1007.6 |
| 20260505082615 | 4 | 35 | 11.3 | 25.7 | 0.00 | 0.00 | 0.00 | 66 | 1007.6 |
| 20260505082517 | 4 | 349 | 9.7 | 25.7 | 0.00 | 0.00 | 0.00 | 66 | 1007.6 |
| 20260505082420 | 4 | 350 | 12.9 | 25.7 | 0.00 | 0.00 | 0.00 | 66 | 1007.6 |
| 20260505082327 | 4 | 325 | 16.1 | 25.7 | 0.00 | 0.00 | 0.00 | 66 | 1007.6 |
| 20260505082229 | 4 | 340 | 16.1 | 25.7 | 0.00 | 0.00 | 0.00 | 65 | 1007.5 |
| 20260505082106 | 4 | 11 | 14.5 | 25.7 | 0.00 | 0.00 | 0.00 | 65 | 1007.5 |
| 20260505082008 | 4 | 355 | 14.5 | 25.7 | 0.00 | 0.00 | 0.00 | 65 | 1007.5 |
| 20260505081911 | 4 | 12 | 14.5 | 25.7 | 0.00 | 0.00 | 0.00 | 65 | 1007.5 |
| 20260505081814 | 4 | 355 | 16.1 | 25.7 | 0.00 | 0.00 | 0.00 | 65 | 1007.5 |
| 20260505081721 | 4 | 339 | 14.5 | 25.7 | 0.00 | 0.00 | 0.00 | 65 | 1007.5 |
| 20260505081625 | 4 | 350 | 9.7 | 17.7 | 0.00 | 0.00 | 0.00 | 65 | 1007.5 |
| 20260505081529 | 4 | 323 | 8.0 | 20.9 | 0.00 | 0.00 | 0.00 | 65 | 1007.5 |
| 20260505081430 | 4 | 360 | 11.3 | 20.9 | 0.00 | 0.00 | 0.00 | 65 | 1007.5 |
| 20260505081306 | 4 | 338 | 11.3 | 20.9 | 0.00 | 0.00 | 0.00 | 65 | 1007.5 |
| 20260505081229 | 4 | 355 | 9.7 | 20.9 | 0.00 | 0.00 | 0.00 | 65 | 1007.5 |
| 20260505081105 | 4 | 317 | 9.7 | 20.9 | 0.00 | 0.00 | 0.00 | 65 | 1007.6 |
| 20260505081012 | 4 | 328 | 11.3 | 20.9 | 0.00 | 0.00 | 0.00 | 64 | 1007.5 |
| 20260505080916 | 4 | 323 | 11.3 | 20.9 | 0.00 | 0.00 | 0.00 | 65 | 1007.5 |
| 20260505080820 | 4 | 333 | 9.7 | 20.9 | 0.00 | 0.00 | 0.00 | 64 | 1007.5 |
| 20260505080705 | 4 | 345 | 9.7 | 20.9 | 0.00 | 0.00 | 0.00 | 64 | 1007.5 |
| 20260505080629 | 4 | 5 | 9.7 | 20.9 | 0.00 | 0.00 | 0.00 | 64 | 1007.5 |
| 20260505080505 | 4 | 329 | 11.3 | 22.5 | 0.00 | 0.00 | 0.00 | 64 | 1007.5 |
| 20260505080413 | 4 | 319 | 9.7 | 22.5 | 0.00 | 0.00 | 0.00 | 64 | 1007.4 |
| 20260505080317 | 4 | 26 | 6.4 | 22.5 | 0.00 | 0.00 | 0.00 | 64 | 1007.4 |
| 20260505080241 | 4 | 5 | 8.0 | 22.5 | 0.00 | 0.00 | 0.00 | 64 | 1007.4 |
| 20260505080105 | 4 | 355 | 9.7 | 22.5 | 0.00 | 0.00 | 0.00 | 64 | 1007.5 |
| 20260505080009 | 4 | 355 | 11.3 | 22.5 | 0.00 | 0.00 | 0.00 | 64 | 1007.5 |
| 20260505075914 | 4 | 331 | 12.9 | 22.5 | 0.00 | 0.00 | 0.00 | 64 | 1007.4 |
| 20260505075819 | 4 | 355 | 11.3 | 22.5 | 0.00 | 0.00 | 0.00 | 63 | 1007.4 |
| 20260505075727 | 4 | 315 | 8.0 | 22.5 | 0.00 | 0.00 | 0.00 | 64 | 1007.5 |
| 20260505075604 | 4 | 306 | 11.3 | 17.7 | 0.00 | 0.00 | 0.00 | 63 | 1007.5 |
| 20260505075530 | 4 | 340 | 12.9 | 17.7 | 0.00 | 0.00 | 0.00 | 63 | 1007.5 |
| 20260505075405 | 4 | 346 | 11.3 | 17.7 | 0.00 | 0.00 | 0.00 | 63 | 1007.4 |
| 20260505075308 | 4 | 333 | 11.3 | 17.7 | 0.00 | 0.00 | 0.00 | 63 | 1007.4 |
| 20260505075212 | 4 | 322 | 12.9 | 17.7 | 0.00 | 0.00 | 0.00 | 63 | 1007.4 |
| 20260505075141 | 4 | 355 | 12.9 | 17.7 | 0.00 | 0.00 | 0.00 | 63 | 1007.5 |
| 20260505075004 | 4 | 321 | 9.7 | 16.1 | 0.00 | 0.00 | 0.00 | 63 | 1007.5 |
| 20260505074908 | 4 | 313 | 9.7 | 16.1 | 0.00 | 0.00 | 0.00 | 63 | 1007.5 |
| 20260505074812 | 4 | 355 | 8.0 | 16.1 | 0.00 | 0.00 | 0.00 | 63 | 1007.5 |
| 20260505074714 | 4 | 331 | 8.0 | 16.1 | 0.00 | 0.00 | 0.00 | 63 | 1007.5 |
| 20260505074637 | 4 | 313 | 8.0 | 16.1 | 0.00 | 0.00 | 0.00 | 63 | 1007.5 |
| 20260505074504 | 4 | 323 | 9.7 | 16.1 | 0.00 | 0.00 | 0.00 | 63 | 1007.5 |
| 20260505074428 | 4 | 335 | 9.7 | 16.1 | 0.00 | 0.00 | 0.00 | 63 | 1007.5 |
| 20260505074305 | 4 | 335 | 8.0 | 14.5 | 0.00 | 0.00 | 0.00 | 63 | 1007.4 |
| 20260505074208 | 4 | 347 | 6.4 | 14.5 | 0.00 | 0.00 | 0.00 | 63 | 1007.4 |
| 20260505074111 | 4 | 324 | 8.0 | 14.5 | 0.00 | 0.00 | 0.00 | 63 | 1007.4 |
| 20260505074015 | 4 | 350 | 8.0 | 14.5 | 0.00 | 0.00 | 0.00 | 63 | 1007.4 |
| 20260505073919 | 5 | 336 | 8.0 | 14.5 | 0.00 | 0.00 | 0.00 | 63 | 1007.4 |
| 20260505073807 | 5 | 324 | 6.4 | 14.5 | 0.00 | 0.00 | 0.00 | 62 | 1007.3 |
| 20260505073711 | 5 | 309 | 6.4 | 14.5 | 0.00 | 0.00 | 0.00 | 62 | 1007.3 |
| 20260505073615 | 5 | 331 | 6.4 | 16.1 | 0.00 | 0.00 | 0.00 | 62 | 1007.3 |
| 20260505073520 | 5 | 346 | 8.0 | 16.1 | 0.00 | 0.00 | 0.00 | 62 | 1007.3 |
| 20260505073424 | 5 | 335 | 8.0 | 16.1 | 0.00 | 0.00 | 0.00 | 62 | 1007.3 |
| 20260505073313 | 5 | 333 | 6.4 | 16.1 | 0.00 | 0.00 | 0.00 | 63 | 1007.3 |
| 20260505073217 | 5 | 5 | 6.4 | 16.1 | 0.00 | 0.00 | 0.00 | 62 | 1007.4 |
| 20260505073121 | 5 | 331 | 8.0 | 16.1 | 0.00 | 0.00 | 0.00 | 61 | 1007.3 |
| 20260505073026 | 5 | 355 | 8.0 | 16.1 | 0.00 | 0.00 | 0.00 | 61 | 1007.3 |
| 20260505072929 | 5 | 314 | 8.0 | 16.1 | 0.00 | 0.00 | 0.00 | 62 | 1007.3 |
| 20260505072805 | 5 | 315 | 9.7 | 16.1 | 0.00 | 0.00 | 0.00 | 62 | 1007.4 |
| 20260505072710 | 5 | 315 | 9.7 | 16.1 | 0.00 | 0.00 | 0.00 | 61 | 1007.3 |
| 20260505072619 | 5 | 360 | 8.0 | 16.1 | 0.00 | 0.00 | 0.00 | 61 | 1007.4 |
| 20260505072543 | 5 | 350 | 6.4 | 16.1 | 0.00 | 0.00 | 0.00 | 62 | 1007.3 |
| 20260505072406 | 5 | 311 | 8.0 | 16.1 | 0.00 | 0.00 | 0.00 | 61 | 1007.3 |
| 20260505072310 | 5 | 348 | 8.0 | 16.1 | 0.00 | 0.00 | 0.00 | 62 | 1007.3 |
| 20260505072213 | 5 | 328 | 8.0 | 16.1 | 0.00 | 0.00 | 0.00 | 61 | 1007.3 |
| 20260505072116 | 5 | 5 | 8.0 | 17.7 | 0.00 | 0.00 | 0.00 | 61 | 1007.3 |
| 20260505072041 | 5 | 329 | 6.4 | 17.7 | 0.00 | 0.00 | 0.00 | 61 | 1007.3 |
| 20260505071907 | 5 | 346 | 6.4 | 17.7 | 0.00 | 0.00 | 0.00 | 61 | 1007.4 |
| 20260505071810 | 5 | 336 | 8.0 | 19.3 | 0.00 | 0.00 | 0.00 | 61 | 1007.2 |
| 20260505071715 | 5 | 345 | 8.0 | 19.3 | 0.00 | 0.00 | 0.00 | 60 | 1007.2 |
| 20260505071619 | 5 | 16 | 8.0 | 19.3 | 0.00 | 0.00 | 0.00 | 61 | 1007.3 |
| 20260505071543 | 5 | 24 | 9.7 | 20.9 | 0.00 | 0.00 | 0.00 | 61 | 1007.3 |
| 20260505071407 | 5 | 321 | 11.3 | 20.9 | 0.00 | 0.00 | 0.00 | 60 | 1007.3 |
| 20260505071315 | 5 | 346 | 11.3 | 20.9 | 0.00 | 0.00 | 0.00 | 60 | 1007.3 |
| 20260505071219 | 5 | 38 | 9.7 | 20.9 | 0.00 | 0.00 | 0.00 | 60 | 1007.3 |
| 20260505071124 | 5 | 337 | 11.3 | 20.9 | 0.00 | 0.00 | 0.00 | 61 | 1007.3 |
| 20260505071009 | 5 | 329 | 9.7 | 20.9 | 0.00 | 0.00 | 0.00 | 60 | 1007.3 |
| 20260505070913 | 5 | 332 | 11.3 | 20.9 | 0.00 | 0.00 | 0.00 | 60 | 1007.3 |
| 20260505070817 | 5 | 330 | 12.9 | 20.9 | 0.00 | 0.00 | 0.00 | 60 | 1007.3 |
| 20260505070706 | 5 | 348 | 11.3 | 20.9 | 0.00 | 0.00 | 0.00 | 60 | 1007.3 |
| 20260505070610 | 5 | 338 | 9.7 | 20.9 | 0.00 | 0.00 | 0.00 | 60 | 1007.4 |
| 20260505070514 | 5 | 355 | 11.3 | 20.9 | 0.00 | 0.00 | 0.00 | 61 | 1007.5 |
| 20260505070418 | 5 | 347 | 11.3 | 20.9 | 0.00 | 0.00 | 0.00 | 60 | 1007.4 |
| 20260505070322 | 5 | 306 | 9.7 | 22.5 | 0.00 | 0.00 | 0.00 | 60 | 1007.4 |
| 20260505070209 | 5 | 288 | 8.0 | 22.5 | 0.00 | 0.00 | 0.00 | 60 | 1007.4 |
| 20260505070113 | 5 | 5 | 8.0 | 22.5 | 0.00 | 0.00 | 0.00 | 60 | 1007.4 |
| 20260505070017 | 5 | 323 | 9.7 | 22.5 | 0.00 | 0.00 | 0.00 | 60 | 1007.4 |
| 20260505065940 | 5 | 340 | 12.9 | 22.5 | 0.00 | 0.00 | 0.00 | 60 | 1007.4 |
| 20260505065824 | 5 | 324 | 14.5 | 22.5 | 0.00 | 0.00 | 0.00 | 60 | 1007.4 |
| 20260505065708 | 5 | 345 | 9.7 | 22.5 | 0.00 | 0.00 | 0.00 | 60 | 1007.4 |
| 20260505065612 | 5 | 316 | 11.3 | 22.5 | 0.00 | 0.00 | 0.00 | 60 | 1007.3 |
| 20260505065521 | 5 | 340 | 9.7 | 22.5 | 0.00 | 0.00 | 0.00 | 60 | 1007.4 |
| 20260505065426 | 5 | 340 | 8.0 | 20.9 | 0.00 | 0.00 | 0.00 | 60 | 1007.3 |
| 20260505065329 | 5 | 328 | 8.0 | 20.9 | 0.00 | 0.00 | 0.00 | 60 | 1007.3 |
| 20260505065205 | 5 | 333 | 9.7 | 20.9 | 0.00 | 0.00 | 0.00 | 60 | 1007.3 |
| 20260505065109 | 5 | 315 | 12.9 | 25.7 | 0.00 | 0.00 | 0.00 | 60 | 1007.2 |
| 20260505065013 | 5 | 334 | 12.9 | 25.7 | 0.00 | 0.00 | 0.00 | 59 | 1007.3 |
| 20260505064922 | 5 | 325 | 11.3 | 25.7 | 0.00 | 0.00 | 0.00 | 60 | 1007.2 |
| 20260505064826 | 5 | 17 | 12.9 | 25.7 | 0.00 | 0.00 | 0.00 | 60 | 1007.1 |
| 20260505064749 | 5 | 314 | 11.3 | 25.7 | 0.00 | 0.00 | 0.00 | 60 | 1007.3 |
| 20260505064606 | 5 | 337 | 9.7 | 25.7 | 0.00 | 0.00 | 0.00 | 60 | 1007.3 |
| 20260505064531 | 5 | 340 | 11.3 | 25.7 | 0.00 | 0.00 | 0.00 | 60 | 1007.3 |
| 20260505064414 | 5 | 360 | 12.9 | 25.7 | 0.00 | 0.00 | 0.00 | 59 | 1007.3 |
| 20260505064317 | 5 | 329 | 11.3 | 25.7 | 0.00 | 0.00 | 0.00 | 60 | 1007.2 |
| 20260505064205 | 5 | 307 | 8.0 | 20.9 | 0.00 | 0.00 | 0.00 | 60 | 1007.3 |
| 20260505064109 | 5 | 336 | 11.3 | 20.9 | 0.00 | 0.00 | 0.00 | 60 | 1007.3 |
| 20260505064013 | 5 | 344 | 11.3 | 20.9 | 0.00 | 0.00 | 0.00 | 59 | 1007.4 |
| 20260505063937 | 5 | 338 | 11.3 | 20.9 | 0.00 | 0.00 | 0.00 | 60 | 1007.4 |
| 20260505063821 | 5 | 360 | 8.0 | 20.9 | 0.00 | 0.00 | 0.00 | 60 | 1007.3 |
| 20260505063724 | 5 | 340 | 9.7 | 20.9 | 0.00 | 0.00 | 0.00 | 60 | 1007.3 |
| 20260505063613 | 5 | 337 | 9.7 | 20.9 | 0.00 | 0.00 | 0.00 | 60 | 1007.3 |
| 20260505063537 | 5 | 355 | 6.4 | 17.7 | 0.00 | 0.00 | 0.00 | 60 | 1007.3 |
| 20260505063439 | 5 | 14 | 8.0 | 17.7 | 0.00 | 0.00 | 0.00 | 60 | 1007.3 |
| 20260505063322 | 5 | 348 | 9.7 | 17.7 | 0.00 | 0.00 | 0.00 | 59 | 1007.3 |
| 20260505063207 | 5 | 337 | 9.7 | 17.7 | 0.00 | 0.00 | 0.00 | 59 | 1007.3 |
| 20260505063111 | 5 | 339 | 8.0 | 17.7 | 0.00 | 0.00 | 0.00 | 60 | 1007.3 |
| 20260505063015 | 5 | 337 | 9.7 | 17.7 | 0.00 | 0.00 | 0.00 | 59 | 1007.3 |
| 20260505062923 | 5 | 324 | 11.3 | 17.7 | 0.00 | 0.00 | 0.00 | 59 | 1007.4 |
| 20260505062827 | 5 | 306 | 8.0 | 19.3 | 0.00 | 0.00 | 0.00 | 59 | 1007.3 |
| 20260505062710 | 5 | 293 | 8.0 | 19.3 | 0.00 | 0.00 | 0.00 | 58 | 1007.4 |
| 20260505062614 | 5 | 333 | 9.7 | 19.3 | 0.00 | 0.00 | 0.00 | 58 | 1007.3 |
| 20260505062518 | 5 | 313 | 9.7 | 19.3 | 0.00 | 0.00 | 0.00 | 58 | 1007.3 |
| 20260505062442 | 5 | 348 | 9.7 | 19.3 | 0.00 | 0.00 | 0.00 | 58 | 1007.2 |
| 20260505062306 | 5 | 334 | 9.7 | 19.3 | 0.00 | 0.00 | 0.00 | 58 | 1007.3 |
| 20260505062214 | 5 | 319 | 9.7 | 19.3 | 0.00 | 0.00 | 0.00 | 59 | 1007.3 |
| 20260505062138 | 5 | 346 | 9.7 | 19.3 | 0.00 | 0.00 | 0.00 | 59 | 1007.3 |
| 20260505062020 | 5 | 318 | 9.7 | 19.3 | 0.00 | 0.00 | 0.00 | 58 | 1007.2 |
| 20260505061924 | 5 | 321 | 11.3 | 19.3 | 0.00 | 0.00 | 0.00 | 58 | 1007.3 |
| 20260505061809 | 5 | 347 | 11.3 | 17.7 | 0.00 | 0.00 | 0.00 | 58 | 1007.2 |
| 20260505061715 | 5 | 337 | 9.7 | 22.5 | 0.00 | 0.00 | 0.00 | 59 | 1007.3 |
| 20260505061605 | 5 | 340 | 8.0 | 22.5 | 0.00 | 0.00 | 0.00 | 59 | 1007.2 |
| 20260505061530 | 5 | 355 | 8.0 | 22.5 | 0.00 | 0.00 | 0.00 | 59 | 1007.3 |
| 20260505061413 | 6 | 322 | 8.0 | 22.5 | 0.00 | 0.00 | 0.00 | 59 | 1007.3 |
| 20260505061318 | 6 | 313 | 9.7 | 22.5 | 0.00 | 0.00 | 0.00 | 58 | 1007.3 |
| 20260505061223 | 6 | 313 | 8.0 | 22.5 | 0.00 | 0.00 | 0.00 | 59 | 1007.3 |
| 20260505061129 | 6 | 325 | 9.7 | 22.5 | 0.00 | 0.00 | 0.00 | 58 | 1007.4 |
| 20260505061014 | 6 | 298 | 9.7 | 22.5 | 0.00 | 0.00 | 0.00 | 58 | 1007.4 |
| 20260505060943 | 6 | 321 | 12.9 | 22.5 | 0.00 | 0.00 | 0.00 | 58 | 1007.3 |
| 20260505060808 | 6 | 304 | 12.9 | 22.5 | 0.00 | 0.00 | 0.00 | 58 | 1007.4 |
| 20260505060733 | 6 | 313 | 8.0 | 19.3 | 0.00 | 0.00 | 0.00 | 58 | 1007.3 |
| 20260505060637 | 6 | 321 | 9.7 | 19.3 | 0.00 | 0.00 | 0.00 | 57 | 1007.3 |
| 20260505060521 | 6 | 315 | 11.3 | 22.5 | 0.00 | 0.00 | 0.00 | 57 | 1007.3 |
| 20260505060406 | 6 | 349 | 9.7 | 22.5 | 0.00 | 0.00 | 0.00 | 58 | 1007.3 |
| 20260505060311 | 6 | 335 | 9.7 | 22.5 | 0.00 | 0.00 | 0.00 | 58 | 1007.3 |
| 20260505060219 | 6 | 360 | 8.0 | 22.5 | 0.00 | 0.00 | 0.00 | 58 | 1007.3 |
| 20260505060105 | 6 | 326 | 9.7 | 22.5 | 0.00 | 0.00 | 0.00 | 58 | 1007.3 |
| 20260505060011 | 6 | 355 | 11.3 | 22.5 | 0.00 | 0.00 | 0.00 | 57 | 1007.3 |
| 20260505055917 | 6 | 317 | 11.3 | 25.7 | 0.00 | 0.00 | 0.00 | 58 | 1007.2 |
| 20260505055822 | 6 | 337 | 12.9 | 25.7 | 0.00 | 0.00 | 0.00 | 58 | 1007.3 |
| 20260505055712 | 6 | 347 | 14.5 | 25.7 | 0.00 | 0.00 | 0.00 | 58 | 1007.2 |
| 20260505055637 | 6 | 332 | 12.9 | 25.7 | 0.00 | 0.00 | 0.00 | 58 | 1007.1 |
| 20260505055521 | 6 | 331 | 9.7 | 25.7 | 0.00 | 0.00 | 0.00 | 58 | 1007.1 |
| 20260505055445 | 6 | 317 | 9.7 | 25.7 | 0.00 | 0.00 | 0.00 | 58 | 1007.1 |
| 20260505055309 | 6 | 336 | 11.3 | 25.7 | 0.00 | 0.00 | 0.00 | 58 | 1007.1 |
| 20260505055213 | 6 | 323 | 12.9 | 25.7 | 0.00 | 0.00 | 0.00 | 57 | 1007.1 |
| 20260505055117 | 6 | 337 | 14.5 | 25.7 | 0.00 | 0.00 | 0.00 | 58 | 1007.1 |
| 20260505055005 | 6 | 344 | 9.7 | 22.5 | 0.00 | 0.00 | 0.00 | 58 | 1007.1 |
| 20260505054910 | 6 | 347 | 9.7 | 22.5 | 0.00 | 0.00 | 0.00 | 57 | 1007.2 |
| 20260505054813 | 6 | 355 | 12.9 | 22.5 | 0.00 | 0.00 | 0.00 | 58 | 1007.1 |
| 20260505054717 | 6 | 17 | 11.3 | 22.5 | 0.00 | 0.00 | 0.00 | 58 | 1007.2 |
| 20260505054621 | 6 | 333 | 9.7 | 22.5 | 0.00 | 0.00 | 0.00 | 59 | 1007.2 |
| 20260505054506 | 6 | 336 | 12.9 | 20.9 | 0.00 | 0.00 | 0.00 | 58 | 1007.1 |
| 20260505054413 | 6 | 9 | 12.9 | 20.9 | 0.00 | 0.00 | 0.00 | 58 | 1007.0 |
| 20260505054318 | 6 | 360 | 14.5 | 20.9 | 0.00 | 0.00 | 0.00 | 58 | 1007.1 |
| 20260505054241 | 6 | 295 | 12.9 | 20.9 | 0.00 | 0.00 | 0.00 | 58 | 1007.1 |
| 20260505054124 | 6 | 325 | 11.3 | 20.9 | 0.00 | 0.00 | 0.00 | 58 | 1007.1 |
| 20260505054008 | 6 | 329 | 11.3 | 20.9 | 0.00 | 0.00 | 0.00 | 58 | 1007.1 |
| 20260505053912 | 6 | 351 | 12.9 | 20.9 | 0.00 | 0.00 | 0.00 | 58 | 1007.1 |
| 20260505053821 | 6 | 301 | 11.3 | 20.9 | 0.00 | 0.00 | 0.00 | 58 | 1007.1 |
| 20260505053706 | 6 | 309 | 11.3 | 20.9 | 0.00 | 0.00 | 0.00 | 58 | 1007.0 |
| 20260505053610 | 6 | 347 | 14.5 | 20.9 | 0.00 | 0.00 | 0.00 | 58 | 1007.1 |
| 20260505053513 | 6 | 355 | 12.9 | 20.9 | 0.00 | 0.00 | 0.00 | 59 | 1007.1 |
| 20260505053418 | 6 | 331 | 12.9 | 20.9 | 0.00 | 0.00 | 0.00 | 58 | 1007.1 |
| 20260505053323 | 6 | 13 | 12.9 | 20.9 | 0.00 | 0.00 | 0.00 | 58 | 1007.1 |
| 20260505053211 | 6 | 320 | 11.3 | 20.9 | 0.00 | 0.00 | 0.00 | 58 | 1007.0 |
| 20260505053115 | 6 | 334 | 11.3 | 19.3 | 0.00 | 0.00 | 0.00 | 58 | 1007.0 |
| 20260505053020 | 6 | 355 | 9.7 | 20.9 | 0.00 | 0.00 | 0.00 | 59 | 1007.0 |
| 20260505052923 | 6 | 302 | 9.7 | 20.9 | 0.00 | 0.00 | 0.00 | 59 | 1007.0 |
| 20260505052807 | 6 | 323 | 9.7 | 20.9 | 0.00 | 0.00 | 0.00 | 59 | 1007.0 |
| 20260505052711 | 6 | 326 | 8.0 | 20.9 | 0.00 | 0.00 | 0.00 | 58 | 1007.0 |
| 20260505052620 | 6 | 340 | 8.0 | 20.9 | 0.00 | 0.00 | 0.00 | 58 | 1007.0 |
| 20260505052504 | 6 | 300 | 11.3 | 20.9 | 0.00 | 0.00 | 0.00 | 58 | 1007.0 |
| 20260505052429 | 6 | 341 | 14.5 | 20.9 | 0.00 | 0.00 | 0.00 | 58 | 1007.0 |
| 20260505052305 | 6 | 347 | 14.5 | 20.9 | 0.00 | 0.00 | 0.00 | 58 | 1007.0 |
| 20260505052211 | 6 | 307 | 11.3 | 20.9 | 0.00 | 0.00 | 0.00 | 58 | 1007.0 |
| 20260505052115 | 6 | 333 | 12.9 | 20.9 | 0.00 | 0.00 | 0.00 | 58 | 1007.0 |
| 20260505052024 | 6 | 291 | 14.5 | 20.9 | 0.00 | 0.00 | 0.00 | 58 | 1006.9 |
| 20260505051909 | 6 | 331 | 14.5 | 20.9 | 0.00 | 0.00 | 0.00 | 58 | 1007.0 |
| 20260505051812 | 6 | 349 | 14.5 | 20.9 | 0.00 | 0.00 | 0.00 | 58 | 1007.0 |
| 20260505051715 | 6 | 336 | 12.9 | 19.3 | 0.00 | 0.00 | 0.00 | 58 | 1007.0 |
| 20260505051618 | 6 | 310 | 9.7 | 19.3 | 0.00 | 0.00 | 0.00 | 58 | 1007.0 |
| 20260505051522 | 6 | 313 | 8.0 | 19.3 | 0.00 | 0.00 | 0.00 | 59 | 1006.9 |
| 20260505051429 | 6 | 322 | 8.0 | 19.3 | 0.00 | 0.00 | 0.00 | 58 | 1006.9 |
| 20260505051305 | 6 | 311 | 11.3 | 19.3 | 0.00 | 0.00 | 0.00 | 57 | 1006.8 |
| 20260505051228 | 6 | 307 | 11.3 | 19.3 | 0.00 | 0.00 | 0.00 | 58 | 1006.9 |
| 20260505051105 | 6 | 355 | 11.3 | 19.3 | 0.00 | 0.00 | 0.00 | 58 | 1006.8 |
| 20260505051008 | 6 | 338 | 12.9 | 19.3 | 0.00 | 0.00 | 0.00 | 58 | 1006.9 |
| 20260505050911 | 6 | 317 | 9.7 | 19.3 | 0.00 | 0.00 | 0.00 | 59 | 1006.9 |
| 20260505050817 | 6 | 335 | 9.7 | 17.7 | 0.00 | 0.00 | 0.00 | 59 | 1006.9 |
| 20260505050721 | 6 | 306 | 11.3 | 17.7 | 0.00 | 0.00 | 0.00 | 59 | 1007.0 |
| 20260505050624 | 6 | 348 | 11.3 | 17.7 | 0.00 | 0.00 | 0.00 | 59 | 1007.0 |
| 20260505050527 | 6 | 333 | 8.0 | 17.7 | 0.00 | 0.00 | 0.00 | 59 | 1007.0 |
| 20260505050430 | 6 | 336 | 8.0 | 17.7 | 0.00 | 0.00 | 0.00 | 59 | 1007.0 |
| 20260505050305 | 6 | 346 | 8.0 | 17.7 | 0.00 | 0.00 | 0.00 | 59 | 1006.9 |
| 20260505050208 | 6 | 338 | 9.7 | 17.7 | 0.00 | 0.00 | 0.00 | 59 | 1006.9 |
| 20260505050115 | 6 | 338 | 9.7 | 17.7 | 0.00 | 0.00 | 0.00 | 59 | 1006.9 |
| 20260505041709 | 6 | 336 | 9.7 | 16.1 | 0.00 | 0.00 | 0.00 | 57 | 1006.7 |
| 20260505041613 | 6 | 321 | 9.7 | 16.1 | 0.00 | 0.00 | 0.00 | 57 | 1006.8 |
| 20260505041517 | 6 | 315 | 9.7 | 16.1 | 0.00 | 0.00 | 0.00 | 57 | 1006.7 |
| 20260505041406 | 6 | 355 | 8.0 | 16.1 | 0.00 | 0.00 | 0.00 | 57 | 1006.7 |
| 20260505041331 | 6 | 320 | 8.0 | 16.1 | 0.00 | 0.00 | 0.00 | 57 | 1006.7 |
| 20260505041214 | 6 | 304 | 8.0 | 16.1 | 0.00 | 0.00 | 0.00 | 57 | 1006.7 |
| 20260505041118 | 7 | 305 | 8.0 | 16.1 | 0.00 | 0.00 | 0.00 | 58 | 1006.7 |
| 20260505041024 | 6 | 313 | 6.4 | 16.1 | 0.00 | 0.00 | 0.00 | 57 | 1006.7 |
| 20260505040929 | 6 | 337 | 8.0 | 19.3 | 0.00 | 0.00 | 0.00 | 56 | 1006.8 |
| 20260505040815 | 7 | 296 | 9.7 | 19.3 | 0.00 | 0.00 | 0.00 | 56 | 1006.7 |
| 20260505040719 | 7 | 350 | 9.7 | 19.3 | 0.00 | 0.00 | 0.00 | 55 | 1006.8 |
| 20260505040623 | 7 | 307 | 9.7 | 19.3 | 0.00 | 0.00 | 0.00 | 56 | 1006.7 |
| 20260505040509 | 6 | 323 | 8.0 | 19.3 | 0.00 | 0.00 | 0.00 | 56 | 1006.7 |
| 20260505040432 | 6 | 331 | 9.7 | 19.3 | 0.00 | 0.00 | 0.00 | 56 | 1006.7 |
| 20260505040315 | 6 | 344 | 11.3 | 19.3 | 0.00 | 0.00 | 0.00 | 56 | 1006.7 |
| 20260505040219 | 6 | 348 | 11.3 | 19.3 | 0.00 | 0.00 | 0.00 | 56 | 1006.7 |
| 20260505040128 | 6 | 326 | 12.9 | 19.3 | 0.00 | 0.00 | 0.00 | 57 | 1006.7 |
| 20260505040005 | 6 | 300 | 11.3 | 17.7 | 0.00 | 0.00 | 0.00 | 56 | 1006.8 |
| 20260505035929 | 6 | 337 | 9.7 | 17.7 | 0.00 | 0.00 | 0.00 | 57 | 1006.7 |
| 20260505035812 | 6 | 288 | 11.3 | 17.7 | 0.00 | 0.00 | 0.00 | 56 | 1006.8 |
| 20260505035717 | 6 | 317 | 11.3 | 17.7 | 0.00 | 0.00 | 0.00 | 57 | 1006.8 |
| 20260505035622 | 6 | 321 | 8.0 | 16.1 | 0.00 | 0.00 | 0.00 | 58 | 1006.7 |
| 20260505035510 | 6 | 317 | 6.4 | 17.7 | 0.00 | 0.00 | 0.00 | 58 | 1006.7 |
| 20260505035413 | 6 | 346 | 6.4 | 17.7 | 0.00 | 0.00 | 0.00 | 59 | 1006.7 |
| 20260505035317 | 6 | 298 | 8.0 | 17.7 | 0.00 | 0.00 | 0.00 | 58 | 1006.6 |
| 20260505035222 | 6 | 307 | 8.0 | 17.7 | 0.00 | 0.00 | 0.00 | 57 | 1006.7 |
| 20260505035126 | 6 | 306 | 6.4 | 17.7 | 0.00 | 0.00 | 0.00 | 58 | 1006.7 |
| 20260505035011 | 6 | 327 | 8.0 | 17.7 | 0.00 | 0.00 | 0.00 | 57 | 1006.7 |
| 20260505034918 | 6 | 355 | 9.7 | 17.7 | 0.00 | 0.00 | 0.00 | 58 | 1006.6 |
| 20260505034843 | 6 | 304 | 9.7 | 17.7 | 0.00 | 0.00 | 0.00 | 58 | 1006.6 |
| 20260505034727 | 6 | 331 | 8.0 | 14.5 | 0.00 | 0.00 | 0.00 | 58 | 1006.7 |
| 20260505034631 | 6 | 307 | 8.0 | 14.5 | 0.00 | 0.00 | 0.00 | 58 | 1006.6 |
| 20260505034507 | 6 | 309 | 8.0 | 14.5 | 0.00 | 0.00 | 0.00 | 58 | 1006.7 |
| 20260505034410 | 6 | 338 | 6.4 | 14.5 | 0.00 | 0.00 | 0.00 | 58 | 1006.6 |
| 20260505034315 | 6 | 304 | 8.0 | 14.5 | 0.00 | 0.00 | 0.00 | 58 | 1006.7 |
| 20260505034238 | 6 | 294 | 8.0 | 14.5 | 0.00 | 0.00 | 0.00 | 58 | 1006.7 |
| 20260505034106 | 6 | 325 | 8.0 | 12.9 | 0.00 | 0.00 | 0.00 | 58 | 1006.6 |
| 20260505034010 | 6 | 309 | 8.0 | 12.9 | 0.00 | 0.00 | 0.00 | 58 | 1006.7 |
| 20260505033915 | 6 | 309 | 6.4 | 9.7 | 0.00 | 0.00 | 0.00 | 58 | 1006.7 |
| 20260505033819 | 6 | 299 | 4.8 | 9.7 | 0.00 | 0.00 | 0.00 | 58 | 1006.6 |
| 20260505033723 | 6 | 312 | 4.8 | 9.7 | 0.00 | 0.00 | 0.00 | 59 | 1006.6 |
| 20260505033612 | 6 | 303 | 6.4 | 9.7 | 0.00 | 0.00 | 0.00 | 59 | 1006.6 |
| 20260505033514 | 6 | 311 | 6.4 | 9.7 | 0.00 | 0.00 | 0.00 | 58 | 1006.6 |
| 20260505033419 | 6 | 315 | 4.8 | 12.9 | 0.00 | 0.00 | 0.00 | 58 | 1006.6 |
| 20260505033323 | 6 | 306 | 4.8 | 12.9 | 0.00 | 0.00 | 0.00 | 58 | 1006.6 |
| 20260505033226 | 6 | 298 | 6.4 | 12.9 | 0.00 | 0.00 | 0.00 | 58 | 1006.7 |
| 20260505033111 | 6 | 315 | 6.4 | 12.9 | 0.00 | 0.00 | 0.00 | 58 | 1006.7 |
| 20260505033014 | 6 | 344 | 6.4 | 12.9 | 0.00 | 0.00 | 0.00 | 59 | 1006.7 |
| 20260505032920 | 6 | 331 | 6.4 | 12.9 | 0.00 | 0.00 | 0.00 | 58 | 1006.6 |
| 20260505032806 | 6 | 302 | 6.4 | 12.9 | 0.00 | 0.00 | 0.00 | 58 | 1006.6 |
| 20260505032709 | 6 | 307 | 6.4 | 12.9 | 0.00 | 0.00 | 0.00 | 59 | 1006.6 |
| 20260505032634 | 6 | 312 | 6.4 | 12.9 | 0.00 | 0.00 | 0.00 | 59 | 1006.6 |
| 20260505032518 | 6 | 297 | 6.4 | 12.9 | 0.00 | 0.00 | 0.00 | 59 | 1006.6 |
| 20260505032422 | 6 | 300 | 4.8 | 12.9 | 0.00 | 0.00 | 0.00 | 59 | 1006.6 |
| 20260505032312 | 6 | 327 | 4.8 | 12.9 | 0.00 | 0.00 | 0.00 | 59 | 1006.6 |
| 20260505032216 | 6 | 306 | 4.8 | 12.9 | 0.00 | 0.00 | 0.00 | 57 | 1006.5 |
| 20260505032120 | 7 | 304 | 4.8 | 12.9 | 0.00 | 0.00 | 0.00 | 58 | 1006.6 |
| 20260505032006 | 7 | 309 | 6.4 | 12.9 | 0.00 | 0.00 | 0.00 | 58 | 1006.6 |
| 20260505031930 | 7 | 309 | 6.4 | 12.9 | 0.00 | 0.00 | 0.00 | 58 | 1006.5 |
| 20260505031805 | 7 | 313 | 4.8 | 12.9 | 0.00 | 0.00 | 0.00 | 56 | 1006.6 |
| 20260505031713 | 7 | 313 | 4.8 | 9.7 | 0.00 | 0.00 | 0.00 | 56 | 1006.6 |
| 20260505031619 | 7 | 315 | 6.4 | 9.7 | 0.00 | 0.00 | 0.00 | 55 | 1006.6 |
| 20260505031522 | 7 | 311 | 6.4 | 9.7 | 0.00 | 0.00 | 0.00 | 56 | 1006.5 |
| 20260505031426 | 7 | 302 | 4.8 | 9.7 | 0.00 | 0.00 | 0.00 | 54 | 1006.6 |
| 20260505031331 | 7 | 288 | 4.8 | 9.7 | 0.00 | 0.00 | 0.00 | 56 | 1006.6 |
| 20260505031213 | 7 | 291 | 4.8 | 9.7 | 0.00 | 0.00 | 0.00 | 54 | 1006.6 |
| 20260505031117 | 7 | 311 | 4.8 | 9.7 | 0.00 | 0.00 | 0.00 | 55 | 1006.6 |
| 20260505031005 | 7 | 319 | 6.4 | 9.7 | 0.00 | 0.00 | 0.00 | 54 | 1006.6 |
| 20260505030907 | 7 | 319 | 6.4 | 9.7 | 0.00 | 0.00 | 0.00 | 54 | 1006.6 |
| 20260505030812 | 7 | 320 | 6.4 | 9.7 | 0.00 | 0.00 | 0.00 | 55 | 1006.7 |
| 20260505030715 | 7 | 293 | 6.4 | 9.7 | 0.00 | 0.00 | 0.00 | 55 | 1006.7 |
| 20260505030618 | 7 | 305 | 6.4 | 14.5 | 0.00 | 0.00 | 0.00 | 55 | 1006.6 |
| 20260505030523 | 7 | 355 | 6.4 | 16.1 | 0.00 | 0.00 | 0.00 | 54 | 1006.6 |
| 20260505030412 | 7 | 315 | 6.4 | 17.7 | 0.00 | 0.00 | 0.00 | 54 | 1006.6 |
| 20260505030316 | 7 | 305 | 6.4 | 17.7 | 0.00 | 0.00 | 0.00 | 54 | 1006.6 |
| 20260505030239 | 7 | 313 | 4.8 | 17.7 | 0.00 | 0.00 | 0.00 | 54 | 1006.6 |
| 20260505030123 | 7 | 324 | 4.8 | 17.7 | 0.00 | 0.00 | 0.00 | 53 | 1006.6 |
| 20260505030027 | 7 | 340 | 4.8 | 17.7 | 0.00 | 0.00 | 0.00 | 53 | 1006.5 |
| 20260505025904 | 7 | 318 | 6.4 | 17.7 | 0.00 | 0.00 | 0.00 | 52 | 1006.5 |
| 20260505025829 | 7 | 307 | 8.0 | 17.7 | 0.00 | 0.00 | 0.00 | 52 | 1006.5 |
| 20260505025716 | 7 | 335 | 11.3 | 17.7 | 0.00 | 0.00 | 0.00 | 52 | 1006.4 |
| 20260505025621 | 7 | 319 | 9.7 | 17.7 | 0.00 | 0.00 | 0.00 | 53 | 1006.4 |
| 20260505025523 | 7 | 306 | 6.4 | 16.1 | 0.00 | 0.00 | 0.00 | 53 | 1006.4 |
| 20260505025428 | 7 | 323 | 6.4 | 9.7 | 0.00 | 0.00 | 0.00 | 53 | 1006.5 |
| 20260505025305 | 7 | 333 | 6.4 | 14.5 | 0.00 | 0.00 | 0.00 | 54 | 1006.4 |
| 20260505025209 | 7 | 329 | 4.8 | 14.5 | 0.00 | 0.00 | 0.00 | 53 | 1006.4 |
| 20260505025118 | 7 | 328 | 4.8 | 14.5 | 0.00 | 0.00 | 0.00 | 53 | 1006.4 |
| 20260505025042 | 7 | 328 | 4.8 | 16.1 | 0.00 | 0.00 | 0.00 | 54 | 1006.4 |
| 20260505024925 | 7 | 336 | 4.8 | 16.1 | 0.00 | 0.00 | 0.00 | 53 | 1006.3 |
| 20260505024850 | 7 | 317 | 6.4 | 16.1 | 0.00 | 0.00 | 0.00 | 53 | 1006.3 |
| 20260505024706 | 7 | 316 | 6.4 | 16.1 | 0.00 | 0.00 | 0.00 | 52 | 1006.3 |
| 20260505024611 | 7 | 319 | 8.0 | 16.1 | 0.00 | 0.00 | 0.00 | 52 | 1006.3 |
| 20260505024516 | 7 | 328 | 6.4 | 16.1 | 0.00 | 0.00 | 0.00 | 51 | 1006.2 |
| 20260505024444 | 7 | 342 | 4.8 | 16.1 | 0.00 | 0.00 | 0.00 | 52 | 1006.2 |
| 20260505024327 | 7 | 328 | 8.0 | 16.1 | 0.00 | 0.00 | 0.00 | 52 | 1006.2 |
| 20260505024231 | 7 | 350 | 9.7 | 16.1 | 0.00 | 0.00 | 0.00 | 51 | 1006.2 |
| 20260505024107 | 7 | 331 | 8.0 | 16.1 | 0.00 | 0.00 | 0.00 | 52 | 1006.2 |
| 20260505024032 | 7 | 342 | 6.4 | 16.1 | 0.00 | 0.00 | 0.00 | 52 | 1006.2 |
| 20260505023935 | 7 | 350 | 8.0 | 16.1 | 0.00 | 0.00 | 0.00 | 52 | 1006.2 |
| 20260505023818 | 7 | 329 | 9.7 | 16.1 | 0.00 | 0.00 | 0.00 | 52 | 1006.1 |
| 20260505023707 | 7 | 329 | 6.4 | 16.1 | 0.00 | 0.00 | 0.00 | 52 | 1006.1 |
| 20260505023611 | 7 | 351 | 6.4 | 16.1 | 0.00 | 0.00 | 0.00 | 52 | 1006.1 |
| 20260505023517 | 7 | 303 | 8.0 | 16.1 | 0.00 | 0.00 | 0.00 | 52 | 1006.2 |
| 20260505023422 | 7 | 341 | 8.0 | 16.1 | 0.00 | 0.00 | 0.00 | 52 | 1006.1 |
| 20260505023326 | 7 | 336 | 9.7 | 16.1 | 0.00 | 0.00 | 0.00 | 52 | 1006.1 |
| 20260505023210 | 7 | 337 | 9.7 | 16.1 | 0.00 | 0.00 | 0.00 | 52 | 1006.2 |
| 20260505023114 | 7 | 360 | 6.4 | 16.1 | 0.00 | 0.00 | 0.00 | 52 | 1006.2 |
| 20260505023022 | 7 | 349 | 6.4 | 16.1 | 0.00 | 0.00 | 0.00 | 52 | 1006.1 |
| 20260505022926 | 7 | 312 | 6.4 | 16.1 | 0.00 | 0.00 | 0.00 | 52 | 1006.1 |
| 20260505022804 | 7 | 315 | 8.0 | 16.1 | 0.00 | 0.00 | 0.00 | 53 | 1006.1 |
| 20260505022707 | 7 | 300 | 8.0 | 16.1 | 0.00 | 0.00 | 0.00 | 52 | 1006.2 |
| 20260505022632 | 7 | 355 | 6.4 | 16.1 | 0.00 | 0.00 | 0.00 | 53 | 1006.2 |
| 20260505022514 | 7 | 346 | 8.0 | 16.1 | 0.00 | 0.00 | 0.00 | 53 | 1006.2 |
| 20260505022421 | 7 | 312 | 9.7 | 16.1 | 0.00 | 0.00 | 0.00 | 52 | 1006.1 |
| 20260505022326 | 7 | 329 | 8.0 | 14.5 | 0.00 | 0.00 | 0.00 | 52 | 1006.1 |
| 20260505022207 | 7 | 27 | 6.4 | 14.5 | 0.00 | 0.00 | 0.00 | 52 | 1006.1 |
| 20260505022111 | 7 | 315 | 6.4 | 12.9 | 0.00 | 0.00 | 0.00 | 52 | 1006.0 |
| 20260505022033 | 7 | 346 | 6.4 | 12.9 | 0.00 | 0.00 | 0.00 | 51 | 1006.0 |
| 20260505021915 | 7 | 339 | 6.4 | 12.9 | 0.00 | 0.00 | 0.00 | 52 | 1006.0 |
| 20260505021820 | 7 | 302 | 6.4 | 12.9 | 0.00 | 0.00 | 0.00 | 51 | 1006.0 |
| 20260505021707 | 7 | 331 | 6.4 | 12.9 | 0.00 | 0.00 | 0.00 | 51 | 1006.0 |
| 20260505021631 | 7 | 325 | 6.4 | 12.9 | 0.00 | 0.00 | 0.00 | 51 | 1005.9 |
| 20260505021507 | 7 | 11 | 8.0 | 12.9 | 0.00 | 0.00 | 0.00 | 51 | 1005.9 |
| 20260505021409 | 7 | 36 | 6.4 | 9.7 | 0.00 | 0.00 | 0.00 | 51 | 1005.9 |
| 20260505021314 | 7 | 355 | 4.8 | 9.7 | 0.00 | 0.00 | 0.00 | 51 | 1005.9 |
| 20260505021217 | 7 | 323 | 6.4 | 9.7 | 0.00 | 0.00 | 0.00 | 50 | 1005.9 |
| 20260505021104 | 7 | 344 | 4.8 | 9.7 | 0.00 | 0.00 | 0.00 | 53 | 1005.9 |
| 20260505021029 | 7 | 350 | 4.8 | 9.7 | 0.00 | 0.00 | 0.00 | 51 | 1005.9 |
| 20260505020905 | 7 | 355 | 6.4 | 9.7 | 0.00 | 0.00 | 0.00 | 52 | 1005.9 |
| 20260505020809 | 7 | 340 | 6.4 | 11.3 | 0.00 | 0.00 | 0.00 | 52 | 1005.9 |
| 20260505020734 | 7 | 350 | 4.8 | 9.7 | 0.00 | 0.00 | 0.00 | 52 | 1005.9 |
| 20260505020617 | 7 | 325 | 4.8 | 9.7 | 0.00 | 0.00 | 0.00 | 51 | 1005.9 |
| 20260505020521 | 8 | 325 | 3.2 | 9.7 | 0.00 | 0.00 | 0.00 | 51 | 1005.8 |
| 20260505020427 | 8 | 342 | 4.8 | 9.7 | 0.00 | 0.00 | 0.00 | 51 | 1005.8 |
| 20260505020351 | 8 | 319 | 6.4 | 12.9 | 0.00 | 0.00 | 0.00 | 51 | 1005.8 |
| 20260505020207 | 8 | 355 | 6.4 | 17.7 | 0.00 | 0.00 | 0.00 | 49 | 1005.8 |
| 20260505020110 | 8 | 345 | 4.8 | 17.7 | 0.00 | 0.00 | 0.00 | 50 | 1005.8 |
| 20260505020013 | 8 | 347 | 4.8 | 17.7 | 0.00 | 0.00 | 0.00 | 49 | 1005.9 |
| 20260505015937 | 8 | 330 | 6.4 | 19.3 | 0.00 | 0.00 | 0.00 | 49 | 1005.8 |
| 20260505015818 | 8 | 303 | 6.4 | 19.3 | 0.00 | 0.00 | 0.00 | 50 | 1005.8 |
| 20260505015725 | 8 | 12 | 6.4 | 19.3 | 0.00 | 0.00 | 0.00 | 49 | 1005.8 |
| 20260505015648 | 8 | 351 | 6.4 | 19.3 | 0.00 | 0.00 | 0.00 | 50 | 1005.8 |
| 20260505015551 | 8 | 331 | 9.7 | 19.3 | 0.00 | 0.00 | 0.00 | 50 | 1005.8 |
| 20260505015407 | 8 | 321 | 11.3 | 20.9 | 0.00 | 0.00 | 0.00 | 50 | 1005.8 |
| 20260505015310 | 8 | 341 | 9.7 | 20.9 | 0.00 | 0.00 | 0.00 | 48 | 1005.8 |
| 20260505015214 | 8 | 346 | 11.3 | 20.9 | 0.00 | 0.00 | 0.00 | 47 | 1005.8 |
| 20260505015118 | 8 | 355 | 12.9 | 20.9 | 0.00 | 0.00 | 0.00 | 47 | 1005.8 |
| 20260505015006 | 8 | 355 | 12.9 | 20.9 | 0.00 | 0.00 | 0.00 | 47 | 1005.7 |
| 20260505014930 | 8 | 341 | 11.3 | 20.9 | 0.00 | 0.00 | 0.00 | 48 | 1005.7 |
| 20260505014807 | 8 | 5 | 9.7 | 20.9 | 0.00 | 0.00 | 0.00 | 48 | 1005.7 |
| 20260505014711 | 8 | 355 | 11.3 | 20.9 | 0.00 | 0.00 | 0.00 | 47 | 1005.7 |
| 20260505014615 | 8 | 360 | 12.9 | 20.9 | 0.00 | 0.00 | 0.00 | 47 | 1005.7 |
| 20260505014519 | 8 | 5 | 12.9 | 20.9 | 0.00 | 0.00 | 0.00 | 47 | 1005.6 |
| 20260505014405 | 8 | 26 | 12.9 | 19.3 | 0.00 | 0.00 | 0.00 | 47 | 1005.7 |
| 20260505014329 | 8 | 324 | 11.3 | 19.3 | 0.00 | 0.00 | 0.00 | 47 | 1005.7 |
| 20260505014206 | 8 | 355 | 9.7 | 19.3 | 0.00 | 0.00 | 0.00 | 48 | 1005.7 |
| 20260505014110 | 8 | 329 | 8.0 | 19.3 | 0.00 | 0.00 | 0.00 | 48 | 1005.7 |
| 20260505014014 | 8 | 33 | 9.7 | 25.7 | 0.00 | 0.00 | 0.00 | 48 | 1005.6 |
| 20260505013917 | 8 | 330 | 12.9 | 25.7 | 0.00 | 0.00 | 0.00 | 47 | 1005.7 |
| 20260505013825 | 8 | 348 | 14.5 | 25.7 | 0.00 | 0.00 | 0.00 | 47 | 1005.6 |
| 20260505013750 | 8 | 355 | 14.5 | 25.7 | 0.00 | 0.00 | 0.00 | 47 | 1005.6 |
| 20260505013604 | 8 | 342 | 9.7 | 25.7 | 0.00 | 0.00 | 0.00 | 47 | 1005.6 |
| 20260505013507 | 8 | 19 | 11.3 | 25.7 | 0.00 | 0.00 | 0.00 | 47 | 1005.6 |
| 20260505013411 | 8 | 355 | 14.5 | 25.7 | 0.00 | 0.00 | 0.00 | 47 | 1005.6 |
| 20260505013334 | 8 | 336 | 16.1 | 25.7 | 0.00 | 0.00 | 0.00 | 47 | 1005.5 |
| 20260505013236 | 8 | 329 | 16.1 | 25.7 | 0.00 | 0.00 | 0.00 | 47 | 1005.6 |
| 20260505013118 | 8 | 348 | 14.5 | 24.1 | 0.00 | 0.00 | 0.00 | 48 | 1005.5 |
| 20260505013005 | 8 | 338 | 12.9 | 24.1 | 0.00 | 0.00 | 0.00 | 48 | 1005.5 |
| 20260505012909 | 8 | 331 | 9.7 | 24.1 | 0.00 | 0.00 | 0.00 | 48 | 1005.6 |
| 20260505012811 | 8 | 5 | 11.3 | 27.4 | 0.00 | 0.00 | 0.00 | 48 | 1005.5 |
| 20260505012713 | 8 | 316 | 16.1 | 27.4 | 0.00 | 0.00 | 0.00 | 48 | 1005.5 |
| 20260505012616 | 8 | 346 | 16.1 | 27.4 | 0.00 | 0.00 | 0.00 | 47 | 1005.5 |
| 20260505012540 | 8 | 349 | 14.5 | 27.4 | 0.00 | 0.00 | 0.00 | 47 | 1005.5 |
| 20260505012405 | 8 | 312 | 14.5 | 29.0 | 0.00 | 0.00 | 0.00 | 48 | 1005.5 |
| 20260505012309 | 8 | 5 | 12.9 | 29.0 | 0.00 | 0.00 | 0.00 | 47 | 1005.4 |
| 20260505012213 | 8 | 347 | 14.5 | 29.0 | 0.00 | 0.00 | 0.00 | 47 | 1005.4 |
| 20260505012116 | 8 | 355 | 17.7 | 29.0 | 0.00 | 0.00 | 0.00 | 46 | 1005.4 |
| 20260505012039 | 8 | 355 | 16.1 | 29.0 | 0.00 | 0.00 | 0.00 | 47 | 1005.3 |
| 20260505011921 | 8 | 339 | 14.5 | 30.6 | 0.00 | 0.00 | 0.00 | 47 | 1005.4 |
| 20260505011808 | 8 | 316 | 16.1 | 30.6 | 0.00 | 0.00 | 0.00 | 47 | 1005.4 |
| 20260505011708 | 8 | 355 | 20.9 | 30.6 | 0.00 | 0.00 | 0.00 | 46 | 1005.3 |
| 20260505011613 | 8 | 360 | 20.9 | 30.6 | 0.00 | 0.00 | 0.00 | 46 | 1005.3 |
| 20260505011515 | 8 | 360 | 17.7 | 30.6 | 0.00 | 0.00 | 0.00 | 46 | 1005.4 |
| 20260505011438 | 8 | 355 | 14.5 | 30.6 | 0.00 | 0.00 | 0.00 | 47 | 1005.4 |
| 20260505011320 | 9 | 355 | 14.5 | 30.6 | 0.00 | 0.00 | 0.00 | 48 | 1005.3 |
| 20260505011205 | 9 | 326 | 16.1 | 32.2 | 0.00 | 0.00 | 0.00 | 47 | 1005.3 |
| 20260505011111 | 9 | 5 | 14.5 | 32.2 | 0.00 | 0.00 | 0.00 | 47 | 1005.3 |
| 20260505011014 | 9 | 360 | 11.3 | 32.2 | 0.00 | 0.00 | 0.00 | 49 | 1005.3 |
| 20260505010914 | 9 | 24 | 11.3 | 32.2 | 0.00 | 0.00 | 0.00 | 49 | 1005.3 |
| 20260505010817 | 9 | 315 | 12.9 | 32.2 | 0.00 | 0.00 | 0.00 | 47 | 1005.3 |
| 20260505010720 | 9 | 349 | 14.5 | 32.2 | 0.00 | 0.00 | 0.00 | 47 | 1005.2 |
| 20260505010624 | 9 | 351 | 17.7 | 32.2 | 0.00 | 0.00 | 0.00 | 47 | 1005.3 |
| 20260505010530 | 9 | 344 | 19.3 | 32.2 | 0.00 | 0.00 | 0.00 | 47 | 1005.2 |
| 20260505010406 | 9 | 346 | 20.9 | 32.2 | 0.00 | 0.00 | 0.00 | 48 | 1005.1 |
| 20260505010309 | 9 | 346 | 19.3 | 30.6 | 0.00 | 0.00 | 0.00 | 47 | 1005.2 |
| 20260505010233 | 9 | 20 | 20.9 | 37.0 | 0.00 | 0.00 | 0.00 | 47 | 1005.1 |
| 20260505010116 | 9 | 28 | 19.3 | 37.0 | 0.00 | 0.00 | 0.00 | 48 | 1005.2 |
| 20260505010018 | 9 | 325 | 16.1 | 37.0 | 0.00 | 0.00 | 0.00 | 48 | 1005.2 |
| 20260505005942 | 9 | 344 | 16.1 | 37.0 | 0.00 | 0.00 | 0.00 | 48 | 1005.0 |
| 20260505005807 | 9 | 312 | 19.3 | 37.0 | 0.00 | 0.00 | 0.00 | 48 | 1005.0 |
| 20260505005711 | 9 | 5 | 19.3 | 37.0 | 0.00 | 0.00 | 0.00 | 48 | 1005.1 |
| 20260505005612 | 9 | 360 | 19.3 | 37.0 | 0.00 | 0.00 | 0.00 | 48 | 1005.0 |
| 20260505005515 | 9 | 11 | 17.7 | 37.0 | 0.00 | 0.00 | 0.00 | 48 | 1005.0 |
| 20260505005418 | 9 | 360 | 19.3 | 37.0 | 0.00 | 0.00 | 0.00 | 48 | 1005.0 |
| 20260505005342 | 9 | 5 | 24.1 | 37.0 | 0.00 | 0.00 | 0.00 | 48 | 1005.0 |
| 20260505005224 | 9 | 350 | 24.1 | 37.0 | 0.00 | 0.00 | 0.00 | 48 | 1005.0 |
| 20260505005152 | 9 | 16 | 24.1 | 37.0 | 0.00 | 0.00 | 0.00 | 48 | 1005.0 |
| 20260505005006 | 9 | 342 | 22.5 | 37.0 | 0.00 | 0.00 | 0.00 | 48 | 1005.0 |
| 20260505004930 | 9 | 351 | 17.7 | 35.4 | 0.00 | 0.00 | 0.00 | 50 | 1004.9 |
| 20260505004813 | 9 | 360 | 17.7 | 35.4 | 0.00 | 0.00 | 0.00 | 49 | 1005.0 |
| 20260505004716 | 9 | 327 | 20.9 | 35.4 | 0.00 | 0.00 | 0.00 | 48 | 1005.0 |
| 20260505004619 | 9 | 342 | 19.3 | 30.6 | 0.00 | 0.00 | 0.00 | 49 | 1005.0 |
| 20260505004506 | 9 | 9 | 20.9 | 30.6 | 0.00 | 0.00 | 0.00 | 49 | 1005.0 |
| 20260505004409 | 9 | 338 | 17.7 | 30.6 | 0.00 | 0.00 | 0.00 | 49 | 1005.0 |
| 20260505004312 | 9 | 355 | 17.7 | 30.6 | 0.00 | 0.00 | 0.00 | 49 | 1004.9 |
| 20260505004235 | 9 | 17 | 20.9 | 30.6 | 0.00 | 0.00 | 0.00 | 48 | 1004.9 |
| 20260505004138 | 9 | 23 | 20.9 | 30.6 | 0.00 | 0.00 | 0.00 | 49 | 1004.8 |
| 20260505004020 | 9 | 32 | 19.3 | 29.0 | 0.00 | 0.00 | 0.00 | 50 | 1004.8 |
| 20260505003923 | 9 | 355 | 16.1 | 29.0 | 0.00 | 0.00 | 0.00 | 49 | 1004.9 |
| 20260505003812 | 9 | 344 | 17.7 | 40.2 | 0.00 | 0.00 | 0.00 | 48 | 1004.9 |
| 20260505003736 | 9 | 345 | 19.3 | 40.2 | 0.00 | 0.00 | 0.00 | 49 | 1004.9 |
| 20260505003618 | 9 | 17 | 19.3 | 40.2 | 0.00 | 0.00 | 0.00 | 49 | 1004.9 |
| 20260505003522 | 9 | 317 | 16.1 | 40.2 | 0.00 | 0.00 | 0.00 | 49 | 1004.9 |
| 20260505003406 | 9 | 5 | 19.3 | 40.2 | 0.00 | 0.00 | 0.00 | 48 | 1004.9 |
| 20260505003330 | 10 | 340 | 19.3 | 40.2 | 0.00 | 0.00 | 0.00 | 48 | 1004.9 |